ECMWFFLT1_925_thetae_000.txt.gz
Theta_e
320 320 320 319 319 320 320 320 320 320 321 321 321 321 320 320 319 318 316 315 316 316 317 320 320 321 322 322 323 323 322 323 324 325 326 326 326 326 326 327 328 328 327 328 329 329 331 331 329 329 328 326 325 324 325 323 321 321 321 320 322 323 324
320 319 319 318 318 320 320 320 320 320 320 319 319 318 316 316 316 315 314 314 313 313 315 316 318 320 321 321 321 320 319 320 321 321 322 323 323 323 323 324 325 326 325 326 328 327 328 330 328 329 329 328 327 325 324 323 321 320 319 318 317 316 319
319 319 319 318 318 319 320 320 319 319 318 317 315 315 315 314 314 314 313 313 312 312 312 312 314 316 317 318 318 317 317 317 317 316 316 317 316 316 317 318 320 322 323 325 325 324 326 327 326 326 325 325 326 324 322 320 319 318 318 319 318 316 317
318 319 319 318 318 319 320 319 318 318 318 316 314 314 315 314 314 314 313 313 313 313 312 312 313 314 314 315 314 315 314 314 314 313 313 314 313 311 312 312 313 315 316 317 317 317 318 321 323 323 320 319 321 320 319 319 318 319 320 320 318 317 317
318 319 319 318 318 319 319 319 318 318 317 316 315 315 315 314 314 314 314 314 313 313 313 313 313 313 314 313 313 313 312 312 311 308 308 310 310 310 310 310 311 311 310 311 311 311 313 315 317 318 317 316 318 318 317 317 317 316 317 317 316 317 318
318 319 319 318 319 318 318 319 318 317 317 316 315 315 315 315 314 314 314 313 313 313 312 312 312 312 312 312 312 311 310 310 310 308 306 305 307 309 309 309 309 309 309 310 310 311 312 312 313 316 316 315 317 316 315 316 316 315 314 315 316 318 319
317 318 319 318 319 318 318 318 318 318 317 316 316 315 315 315 315 315 314 312 312 312 312 312 312 312 312 312 312 311 311 311 310 310 310 307 307 306 306 308 309 307 308 309 309 310 311 311 312 314 314 314 315 315 315 316 315 315 315 316 317 318 319
317 318 318 318 318 318 318 318 318 318 318 317 317 316 315 316 316 316 314 313 312 312 312 311 311 312 311 311 311 310 311 310 308 308 308 307 306 302 303 309 308 305 304 305 308 309 309 310 311 311 312 315 316 315 315 315 315 316 315 316 317 318 319
317 317 318 318 317 318 317 317 318 318 318 318 318 316 315 316 316 315 314 313 313 312 311 310 311 311 310 310 311 311 311 310 310 310 308 308 307 303 303 308 309 306 303 303 307 307 306 308 311 311 311 313 315 315 316 316 317 317 315 315 316 316 316
318 316 317 318 317 317 318 317 316 318 318 318 319 318 316 316 317 316 315 314 313 313 312 312 311 311 311 311 311 311 311 311 312 311 310 310 309 306 306 307 309 309 304 305 308 306 304 307 309 311 311 311 313 315 316 316 316 315 315 315 316 315 315
319 318 317 318 317 317 318 317 316 317 318 319 319 319 316 317 317 316 316 316 315 313 313 312 312 311 312 312 311 312 311 311 311 310 311 311 309 308 308 307 308 308 306 307 308 307 308 309 308 309 309 310 311 313 314 315 315 314 313 314 314 314 315
321 320 319 319 319 317 318 319 317 316 318 320 321 320 317 317 318 317 317 317 316 314 314 312 312 311 311 312 311 311 311 311 312 311 310 309 308 309 309 308 308 308 307 306 307 309 310 309 308 307 307 308 309 311 311 313 315 314 312 313 313 313 313
322 321 321 321 321 319 318 319 318 317 318 320 322 320 318 318 318 317 318 318 317 316 314 313 312 312 312 312 311 311 310 311 312 310 309 308 309 309 310 309 308 307 305 305 307 309 308 308 309 308 307 308 308 309 309 310 313 313 311 311 312 311 312
321 320 320 321 321 320 318 318 318 318 318 319 321 321 319 319 319 317 318 319 318 317 315 314 313 312 313 312 312 312 311 310 311 310 310 309 308 309 309 308 309 308 306 305 306 307 306 307 308 308 308 309 309 309 309 309 310 311 310 310 309 309 309
321 320 320 321 321 320 318 318 319 319 318 319 320 321 320 320 319 318 318 318 318 318 316 315 314 313 314 313 312 313 311 309 310 310 310 309 308 308 308 307 308 308 307 305 305 305 306 306 307 307 308 308 308 308 308 308 309 309 309 309 309 309 308
322 321 320 320 320 319 319 319 319 319 318 319 320 320 319 319 319 318 318 318 318 318 317 316 315 313 314 314 313 313 311 310 310 310 310 309 309 309 308 307 308 308 307 306 306 306 307 306 306 307 307 306 307 306 307 308 308 309 310 310 310 310 310
323 323 322 320 321 320 320 320 321 320 318 318 319 320 319 318 319 318 318 318 318 319 318 317 316 314 314 313 314 313 312 310 310 310 310 309 309 309 309 309 308 308 308 307 307 307 307 307 307 306 306 306 306 306 306 306 307 308 309 309 309 309 308
325 324 323 323 322 321 321 320 320 320 320 320 320 320 319 319 319 319 319 319 318 319 318 317 316 315 314 314 314 313 312 311 310 310 310 309 309 309 308 308 308 307 307 307 307 307 307 307 307 306 305 305 305 305 305 305 306 306 306 306 306 306 306
326 323 322 322 322 321 320 320 320 319 320 320 320 318 317 318 319 318 318 319 319 318 318 318 317 316 315 314 314 313 312 311 311 310 310 310 309 308 308 307 307 307 307 306 306 307 306 306 306 306 305 305 305 305 305 305 305 305 305 306 306 306 306
323 323 321 319 319 319 319 319 319 319 320 319 318 318 317 317 316 317 317 318 319 318 318 319 318 317 316 314 314 313 312 312 311 311 311 310 309 308 307 307 306 306 306 306 306 306 306 305 305 304 304 303 302 302 302 303 303 304 304 305 305 306 306
316 320 320 317 315 317 319 319 318 319 319 319 318 318 318 317 316 317 318 318 319 319 318 319 318 318 316 315 314 314 313 312 312 311 311 310 309 308 307 306 305 305 305 305 305 305 305 303 301 299 298 299 299 300 300 301 302 302 303 303 304 305 305
314 317 319 318 316 317 318 318 317 318 319 319 319 319 318 319 318 317 317 318 319 319 319 319 319 318 317 316 315 314 313 312 312 312 311 310 308 307 306 305 304 304 304 304 304 304 302 298 295 294 294 295 297 298 299 300 300 300 300 301 302 303 303
312 313 314 316 316 316 316 316 315 316 316 316 315 316 317 319 319 318 317 319 320 319 319 319 319 318 317 316 315 314 313 312 312 312 311 309 307 306 304 304 304 303 303 302 302 301 299 296 295 293 293 294 295 296 296 297 297 298 299 300 300 301 302
309 310 311 312 312 314 314 315 314 315 315 315 315 315 317 319 319 318 318 318 319 318 318 319 319 318 317 316 315 314 313 313 312 311 310 308 306 305 304 303 303 303 302 301 300 300 299 298 297 296 296 296 296 296 296 296 296 296 298 299 300 300 301
309 309 310 310 310 311 312 313 314 314 315 316 316 316 316 317 318 319 319 320 319 319 319 318 318 318 318 316 315 314 313 313 312 310 308 307 305 305 304 304 303 303 303 302 301 301 301 300 299 298 298 298 298 297 297 296 296 296 297 298 299 299 300
309 309 309 309 309 309 309 311 312 314 315 315 315 314 315 316 316 318 321 321 321 320 320 319 318 318 317 315 314 314 313 311 309 308 306 305 305 304 304 303 303 304 303 303 302 301 301 300 299 300 299 299 298 297 297 297 297 297 297 297 298 299 299
309 309 309 309 309 308 309 309 311 313 315 314 314 314 315 316 315 317 319 320 319 319 319 318 317 317 316 314 313 312 311 308 307 306 305 304 304 304 303 302 303 303 303 302 302 301 301 300 300 300 300 299 299 298 298 298 298 298 298 298 297 298 298
308 308 308 308 308 308 308 309 309 311 314 314 314 313 314 315 316 317 319 319 317 317 316 316 315 314 313 312 311 310 308 307 306 305 305 304 304 303 303 302 302 302 302 302 301 301 300 300 300 299 299 298 298 297 297 297 297 297 298 298 298 298 298
308 308 308 308 308 308 308 308 309 310 312 314 314 313 313 314 315 317 318 318 316 315 314 312 311 310 310 310 309 308 307 306 305 304 304 303 303 302 302 302 302 302 301 301 301 301 300 300 299 298 297 297 297 297 297 297 297 297 298 298 298 298 298
308 308 308 307 308 307 307 308 308 309 311 312 313 313 313 313 314 315 317 317 315 314 313 310 308 308 309 308 307 305 304 304 303 303 303 303 303 302 302 302 302 302 301 301 301 301 300 299 298 298 297 297 297 297 297 297 297 297 297 297 297 297 297
308 308 308 308 308 307 307 307 308 308 310 311 312 313 313 313 313 314 315 315 314 313 312 309 307 307 307 307 305 303 302 301 302 302 302 303 303 303 302 301 301 301 301 301 301 300 299 298 298 297 297 297 297 297 297 297 297 297 297 296 296 297 297
307 308 308 308 308 308 308 308 308 308 309 311 312 312 312 312 313 314 314 313 312 312 311 309 306 306 306 305 303 301 300 300 300 301 301 301 302 302 301 301 302 301 300 300 300 299 298 298 297 297 297 297 297 296 296 296 297 296 296 295 295 295 296
307 307 308 309 309 309 308 308 307 308 308 310 311 311 311 313 313 311 311 310 309 309 310 308 305 302 299 298 298 298 298 299 299 300 300 301 301 301 300 300 300 300 299 298 298 297 297 296 295 295 295 295 295 295 295 295 295 295 294 294 293 293 294
306 306 307 308 308 309 308 308 307 308 308 309 311 312 312 313 311 309 308 307 307 306 307 306 302 297 295 295 296 297 296 296 298 299 299 299 299 298 298 298 298 298 298 297 297 296 295 295 294 294 293 293 293 293 293 293 292 292 292 292 292 292 292
305 306 306 306 307 308 309 308 308 307 308 309 312 313 312 311 309 306 305 305 304 305 304 303 301 297 296 296 296 295 294 294 296 297 297 296 297 297 297 298 297 297 297 296 296 295 294 293 293 292 292 292 292 291 291 291 291 291 291 291 292 292 292
304 305 305 305 306 307 309 309 309 308 309 311 313 312 310 308 306 304 303 302 302 302 301 300 298 296 296 296 295 294 293 293 294 294 293 295 297 297 298 298 297 297 296 295 294 293 293 292 292 292 292 292 291 291 291 291 291 291 291 291 292 292 292
304 304 305 305 305 306 308 308 309 310 311 313 312 310 308 306 304 303 301 300 299 298 297 297 296 295 294 294 293 292 292 293 293 293 293 295 296 297 297 298 297 297 296 294 293 293 293 293 293 292 292 292 291 291 291 291 291 291 292 292 292 292 292

ECMWFFLT1_925_thetae_003.txt.gz
Theta_e
319 318 320 320 319 319 319 318 319 320 320 319 319 319 319 316 315 316 316 317 319 319 320 321 322 323 323 323 324 324 324 326 327 326 326 327 328 327 327 327 328 327 326 327 328 328 330 331 329 327 326 325 326 325 324 324 323 322 319 317 318 319 319
319 319 320 319 318 318 319 319 320 320 319 318 318 317 317 316 313 313 314 315 318 319 320 321 321 321 321 320 320 320 320 322 325 325 324 323 323 324 325 326 326 326 326 327 327 326 327 329 330 330 326 323 323 321 320 321 322 321 319 318 318 318 317
319 319 319 319 319 320 321 320 319 318 316 315 315 314 314 314 312 312 312 313 313 314 315 318 320 320 319 318 318 318 317 318 319 320 317 315 315 317 321 323 322 321 322 321 320 321 323 324 327 326 319 317 319 317 317 319 319 319 318 318 318 318 316
318 318 319 319 320 321 320 319 317 316 314 314 314 314 313 312 312 312 313 312 312 311 312 314 315 316 316 315 315 315 314 314 314 314 312 311 312 313 314 315 314 313 313 313 312 313 315 317 320 320 315 313 316 315 315 316 316 316 316 317 318 317 315
318 318 318 320 320 320 318 317 316 314 313 314 314 314 313 311 311 312 312 312 311 312 313 314 313 313 313 313 312 310 308 308 310 311 310 309 309 310 310 310 310 309 309 309 310 311 311 312 314 315 313 313 314 314 313 314 315 315 315 315 316 316 317
318 317 318 320 320 319 318 317 316 315 313 314 314 313 312 312 312 311 312 313 312 312 312 312 312 312 311 310 308 305 301 301 304 306 306 307 307 309 309 309 308 307 308 309 310 310 311 311 311 311 311 312 313 313 313 313 314 315 315 315 316 317 319
318 317 317 319 320 318 318 317 316 316 314 313 314 313 312 313 313 312 312 312 312 312 311 310 310 310 309 308 307 305 302 300 300 300 301 302 304 307 307 307 306 306 307 309 309 309 310 310 310 311 311 312 312 312 312 313 314 314 315 315 315 316 316
318 317 317 318 319 318 318 317 317 316 315 314 314 313 313 314 314 313 311 309 309 311 312 312 311 310 309 308 309 308 304 301 300 299 299 299 302 306 307 306 304 302 304 307 308 308 309 310 310 311 311 314 315 315 312 312 313 313 314 314 314 314 314
318 317 318 318 318 318 318 318 317 317 316 315 314 313 314 315 315 314 310 308 308 308 311 312 311 311 310 309 308 307 306 306 304 302 301 300 303 307 308 307 305 302 302 304 305 304 305 309 310 310 310 312 315 317 316 318 316 312 312 313 313 314 313
318 317 318 318 317 318 318 317 317 317 316 316 315 314 315 316 315 313 311 309 308 306 308 311 310 311 309 308 308 309 311 312 310 307 306 303 303 306 307 308 308 306 303 303 305 303 304 307 309 309 309 309 311 314 316 320 319 314 310 311 312 313 312
318 318 318 318 318 317 318 318 317 317 316 316 316 314 315 316 315 314 312 311 308 307 310 311 310 310 310 309 309 311 312 312 311 310 310 307 304 303 305 308 309 308 304 304 307 306 305 306 307 307 307 308 309 311 312 315 317 314 309 309 310 310 310
318 318 318 317 317 317 317 318 318 318 317 317 317 315 315 316 316 315 314 312 310 309 311 312 311 310 311 311 310 311 311 309 309 310 310 309 306 304 304 306 308 308 305 304 306 308 307 307 307 307 306 307 308 308 309 311 313 312 309 308 309 308 307
317 318 318 317 317 318 316 317 318 318 318 318 317 316 316 316 316 315 315 315 313 312 312 312 311 310 311 311 310 311 310 309 310 310 309 308 307 306 306 306 308 307 304 304 306 308 308 307 307 307 307 308 308 308 308 308 310 310 308 308 308 307 307
318 319 319 317 318 318 316 316 317 318 318 318 318 318 317 316 316 315 315 316 316 314 313 312 312 310 311 312 311 311 310 310 312 311 309 308 307 307 308 308 309 308 305 304 305 306 307 306 306 307 308 308 308 309 309 308 308 308 307 306 307 307 307
321 321 320 317 317 319 318 317 318 318 319 319 319 319 318 317 317 316 316 316 316 316 314 313 313 311 311 312 311 311 311 310 311 311 309 309 309 308 307 308 308 308 307 305 303 304 305 306 306 307 307 307 307 307 307 307 307 307 307 307 307 307 307
320 321 321 319 318 319 319 318 320 321 320 320 319 319 318 318 318 317 316 317 317 318 317 315 314 312 311 312 312 311 311 311 310 310 310 310 309 308 307 307 307 307 308 307 304 305 306 306 306 307 306 306 306 305 305 306 306 307 307 307 306 306 305
320 319 319 320 319 319 318 318 320 321 321 321 319 319 319 318 318 317 317 318 318 318 318 316 315 314 312 312 313 312 312 312 310 309 310 310 309 308 308 308 307 307 308 308 306 306 307 307 306 306 306 305 305 305 305 305 305 305 306 305 305 305 305
320 320 320 320 320 319 319 319 319 319 320 321 320 319 319 319 319 319 318 319 319 319 319 318 317 316 314 313 313 313 313 312 311 309 310 310 309 308 309 309 308 308 308 308 307 306 306 307 307 306 306 305 305 305 305 304 304 304 304 304 304 304 304
323 323 321 321 320 320 320 319 319 319 319 319 319 319 319 319 319 319 319 319 319 318 319 319 318 317 316 314 313 313 313 313 312 310 309 310 310 309 309 309 308 308 308 307 307 306 306 307 306 306 305 305 305 305 304 303 303 302 302 302 302 302 303
323 323 323 322 321 321 320 320 320 319 319 318 318 318 318 318 318 318 317 316 315 315 316 317 318 318 317 316 314 314 313 313 313 311 310 310 310 309 309 308 308 307 307 307 306 306 306 306 305 305 305 304 303 302 301 300 300 300 300 301 301 301 301
318 319 320 319 319 319 319 319 319 319 319 319 318 317 317 317 317 317 316 313 313 313 314 315 316 317 318 317 316 314 313 313 313 312 311 310 310 309 309 308 308 307 306 306 306 305 305 305 305 304 303 300 298 297 297 298 298 298 298 298 297 297 297
315 316 316 316 316 317 318 317 317 317 318 318 318 318 317 317 316 316 316 314 314 315 316 315 316 316 318 318 317 316 314 314 313 312 311 311 310 309 309 308 307 307 306 305 305 305 305 305 304 302 298 295 293 293 294 295 296 296 296 295 295 296 296
314 314 316 317 316 315 315 315 314 316 316 316 316 316 315 315 316 316 316 316 316 316 317 317 316 317 318 319 317 316 315 314 313 312 311 311 310 309 308 307 307 305 305 305 304 304 304 304 303 300 298 296 295 294 295 295 295 296 296 295 296 296 297
313 314 315 315 314 313 315 315 315 315 315 314 314 315 314 314 314 315 316 316 316 316 317 318 318 317 319 319 318 317 316 314 313 312 312 311 310 309 308 307 306 305 304 304 303 303 303 302 301 300 299 298 298 298 298 297 297 296 296 296 296 297 297
311 312 311 311 311 312 313 314 314 315 316 316 316 316 316 316 314 314 316 316 316 316 317 318 318 318 318 319 319 317 316 314 313 312 312 312 311 309 308 307 306 305 304 303 303 303 302 302 302 301 299 299 299 299 298 298 297 297 297 296 296 297 297
309 309 309 309 309 309 310 310 311 313 315 316 316 316 315 316 316 316 317 318 319 319 319 319 319 319 319 319 318 317 315 314 313 313 312 312 311 309 308 307 305 304 303 303 303 303 303 302 302 301 300 300 299 299 298 298 297 297 297 297 296 297 297
309 308 309 309 308 308 309 309 309 311 312 314 314 314 314 314 315 316 317 317 319 320 320 320 320 320 320 319 318 316 314 314 313 312 311 310 309 307 306 305 304 303 303 303 303 303 303 302 301 301 300 300 300 299 298 298 297 297 297 297 297 296 297
308 308 308 308 308 308 308 308 308 309 311 313 314 313 313 313 314 315 315 315 316 317 318 318 318 318 318 318 316 314 313 313 312 310 308 307 306 305 304 304 304 303 303 303 303 303 302 302 301 301 300 300 299 298 297 297 297 296 296 296 296 296 297
308 307 307 308 307 307 308 308 308 309 310 311 313 313 313 312 313 315 315 315 315 316 316 316 316 314 314 314 313 311 311 310 308 307 307 306 305 304 304 304 304 303 303 302 302 302 302 301 301 300 300 299 298 298 297 297 296 296 296 296 296 297 297
308 307 307 307 307 307 307 307 307 308 309 310 311 312 312 312 313 315 316 316 316 316 316 315 312 311 310 311 310 308 308 307 305 305 305 304 304 304 304 303 303 303 302 302 301 301 301 301 301 300 299 298 298 298 297 297 297 296 297 297 297 297 297
308 308 307 307 307 307 307 307 306 307 307 308 309 310 312 313 313 313 314 315 316 316 315 313 311 309 309 309 308 307 306 305 303 303 303 303 303 303 303 303 302 302 302 301 302 301 301 301 300 299 298 298 297 297 297 297 297 297 296 296 296 296 296
308 308 308 307 307 307 307 307 307 307 307 307 308 310 312 313 313 313 313 314 314 314 314 313 310 309 308 307 308 307 305 303 302 302 302 302 302 302 302 302 302 302 301 301 301 301 300 299 298 297 297 296 296 296 296 295 295 295 295 295 294 294 294
306 307 307 307 307 308 308 308 308 307 307 307 307 309 311 312 312 313 313 313 313 313 313 312 310 308 306 305 306 305 304 302 301 301 300 300 299 299 300 301 301 300 300 300 299 299 298 297 296 296 296 295 294 294 294 293 293 293 292 292 292 292 291
305 306 306 307 308 308 308 308 307 306 306 307 308 310 311 311 312 312 312 312 312 311 311 311 309 306 304 304 304 303 302 301 300 300 300 299 298 297 297 298 298 298 298 297 297 296 296 296 296 295 294 294 293 293 292 292 292 292 291 291 291 291 291
304 305 305 306 307 307 308 308 307 306 306 308 309 311 311 311 311 310 309 309 310 310 309 309 308 305 302 302 302 301 300 299 298 299 299 298 297 297 297 297 297 297 296 296 296 296 296 295 294 294 293 293 293 292 292 291 291 291 291 291 291 291 291
304 304 304 304 304 305 305 307 308 308 308 309 310 311 310 310 309 308 307 306 307 307 307 306 304 302 300 299 299 299 298 297 296 296 296 296 296 296 296 297 297 296 297 297 296 295 294 294 293 293 293 293 292 292 292 292 292 292 292 292 292 292 292
304 303 303 303 303 303 304 305 307 308 309 310 311 310 309 308 307 305 304 304 304 305 304 302 300 299 298 298 297 297 295 294 293 293 293 294 294 294 296 297 296 296 296 296 295 294 293 293 293 293 293 293 293 292 292 292 292 292 292 292 292 292 292

ECMWFFLT1_925_thetae_006.txt.gz
Theta_e
319 320 320 319 318 318 318 318 319 319 318 318 317 317 317 316 316 318 320 322 324 325 325 326 326 327 328 328 327 326 327 328 329 328 328 329 329 329 328 328 327 326 326 327 328 327 328 328 328 326 320 318 321 320 319 320 321 322 321 321 320 318 318
320 320 320 318 317 318 319 319 319 318 318 317 316 315 315 316 317 318 320 321 322 322 322 322 322 323 324 325 324 324 326 327 327 327 327 328 327 327 327 326 326 326 325 325 325 324 326 328 329 328 319 313 315 316 315 316 317 318 318 318 318 318 318
320 320 319 317 317 319 319 319 319 318 318 316 316 314 313 314 315 315 316 317 320 321 321 320 319 319 320 320 321 323 325 324 322 321 322 324 325 325 325 324 324 323 319 316 315 317 320 322 324 324 315 312 315 314 313 314 315 316 316 315 317 317 318
320 319 318 317 318 319 319 319 317 316 315 314 314 313 312 312 312 312 311 310 313 316 318 319 318 318 318 317 317 319 321 319 316 315 316 318 321 321 321 320 319 317 312 311 311 311 312 314 318 317 311 310 313 312 312 314 314 315 315 315 317 317 318
320 318 317 318 319 320 319 317 315 313 313 312 312 312 312 313 312 310 309 308 309 310 311 313 315 316 315 314 313 315 316 315 313 313 313 314 315 316 314 313 313 311 309 310 311 310 310 311 313 312 310 311 313 311 311 313 314 314 314 314 314 315 315
319 317 317 318 319 320 318 315 313 312 312 311 310 310 311 312 311 310 310 311 310 309 308 309 310 310 309 307 306 308 310 310 310 309 309 309 311 311 310 310 308 308 308 309 309 310 310 310 310 310 310 311 312 311 310 312 313 314 313 313 313 312 312
319 318 317 318 319 318 316 313 312 310 310 309 309 308 308 310 310 310 311 311 310 310 309 309 308 305 302 301 300 301 303 305 305 305 306 308 308 308 307 307 307 308 308 308 309 310 309 310 310 310 311 310 310 310 309 310 312 313 312 311 313 313 311
318 317 317 318 319 317 314 312 311 309 309 308 308 308 308 309 309 310 312 312 310 310 310 309 307 304 303 302 301 300 300 300 300 301 304 306 306 306 304 303 303 305 306 306 306 307 308 310 310 309 310 312 314 313 310 310 310 310 310 308 310 312 309
318 317 317 319 319 317 314 313 312 310 309 309 309 310 311 310 309 309 310 310 311 312 311 310 309 307 305 303 301 302 302 301 300 300 301 303 305 306 305 303 302 301 302 303 302 302 305 308 310 309 309 310 314 315 315 316 314 311 308 307 308 308 306
318 316 317 319 319 317 316 315 313 311 311 311 310 311 312 312 310 307 307 309 311 312 312 311 311 309 306 304 305 307 307 306 304 302 301 302 304 306 307 307 306 304 304 305 304 303 303 306 308 308 307 308 310 313 316 319 318 312 308 307 307 306 305
317 316 316 318 319 318 316 315 314 313 313 312 312 312 313 313 312 308 305 306 309 311 311 310 310 310 307 306 308 310 310 310 308 305 304 303 302 304 306 307 308 306 305 306 307 306 306 307 306 306 307 306 307 310 311 314 315 311 308 308 307 306 306
317 316 316 317 318 318 317 316 315 314 314 313 313 313 313 314 313 310 307 305 306 309 310 310 309 310 308 308 309 311 311 311 309 306 306 305 304 303 304 306 307 305 303 305 307 307 306 307 307 307 307 306 307 308 308 309 311 310 308 307 306 306 306
317 317 317 317 318 317 317 317 316 315 315 314 314 314 314 314 313 312 309 307 306 308 310 311 310 310 310 310 309 310 311 309 308 308 308 307 306 305 305 305 306 306 304 304 306 307 306 306 306 306 306 307 308 308 308 308 309 308 307 306 306 306 306
317 317 317 316 317 317 317 318 316 316 315 315 315 315 314 314 313 312 312 311 309 308 309 311 311 310 311 311 310 310 310 309 309 310 310 308 307 306 307 306 307 307 306 305 304 305 305 305 306 306 306 307 307 308 308 308 307 307 306 306 306 306 305
317 317 317 317 317 317 317 318 317 316 316 315 315 316 315 314 314 314 313 314 313 311 310 310 311 310 310 311 311 310 310 310 309 310 311 310 308 308 307 307 307 307 307 306 305 303 304 305 306 306 306 306 306 306 306 305 305 305 305 305 305 304 304
319 318 317 317 318 317 318 318 317 317 316 316 315 316 316 315 314 315 315 315 315 314 313 311 312 312 310 310 311 311 310 310 310 310 311 310 309 309 308 307 306 307 307 307 306 305 305 305 306 306 306 305 305 305 305 304 304 303 304 304 303 303 303
319 319 318 318 318 318 317 317 318 317 316 316 316 316 316 315 315 316 315 316 315 315 315 314 313 314 313 311 311 311 311 311 310 310 310 310 310 309 309 308 307 307 307 307 307 307 306 305 306 306 306 306 305 305 304 304 303 302 302 301 302 302 301
320 320 319 320 320 319 319 318 318 318 317 316 316 316 316 316 316 316 315 316 316 316 317 316 315 315 315 315 313 312 312 311 311 311 310 310 310 309 310 309 308 308 307 307 307 307 306 306 306 306 306 306 305 304 304 303 302 301 300 300 299 299 298
320 319 319 319 319 319 320 320 320 319 317 317 317 316 316 317 316 316 316 316 317 317 317 317 317 316 316 315 315 314 312 312 312 312 311 311 310 309 310 309 308 308 308 307 307 308 307 306 306 306 306 305 305 304 302 300 299 297 297 297 296 296 295
320 320 319 319 319 319 320 321 320 318 318 317 317 317 317 317 317 317 317 317 317 318 318 318 318 318 317 316 315 314 313 313 312 312 312 312 311 309 309 309 309 308 308 308 308 307 307 306 306 306 305 305 304 303 300 297 295 294 294 295 295 295 295
320 319 319 319 319 319 319 319 319 319 318 318 318 318 318 318 318 318 317 318 318 318 319 318 317 316 317 317 317 316 316 314 313 313 312 313 312 310 309 309 309 308 308 308 307 307 306 306 305 305 305 304 303 301 297 294 293 294 295 295 295 296 296
318 318 318 319 319 319 319 318 319 319 318 318 317 318 318 317 317 317 318 318 318 318 317 315 314 313 314 316 316 316 316 316 315 314 313 313 312 310 310 309 309 309 308 307 307 306 306 305 305 305 304 303 301 299 297 296 296 296 296 296 296 296 296
318 318 318 318 317 318 319 318 318 318 317 317 317 316 317 317 317 317 317 317 317 317 316 314 313 313 314 315 315 315 315 316 317 316 314 313 313 311 310 310 309 308 307 307 306 306 305 305 304 304 303 302 301 299 298 298 298 297 297 296 296 297 296
318 318 317 317 317 318 317 316 315 314 315 315 315 315 317 318 318 317 316 317 316 316 316 316 316 316 316 316 316 316 316 317 317 317 315 314 313 311 310 309 309 308 307 308 307 305 305 304 303 303 302 302 301 300 299 299 298 298 297 297 297 297 296
316 316 316 316 315 316 316 314 313 313 314 315 315 315 316 316 316 316 316 315 315 315 316 316 317 317 317 317 317 318 318 318 318 317 316 313 312 311 310 309 308 308 307 307 306 305 304 303 303 302 302 302 301 300 300 299 299 298 297 297 297 296 296
315 314 314 314 312 313 313 313 313 314 314 315 315 315 315 314 315 315 315 315 316 316 317 318 319 319 319 319 319 318 319 319 318 317 315 314 312 312 310 309 307 306 306 307 306 304 303 303 303 302 302 302 301 300 300 300 299 298 297 297 297 296 296
312 311 310 309 309 310 310 310 311 312 313 314 314 314 314 314 315 315 316 316 317 316 316 317 317 316 316 317 318 318 319 319 317 316 314 313 313 312 310 308 307 306 306 306 304 303 303 303 303 303 303 302 301 300 300 300 299 298 297 297 297 296 296
309 308 308 308 307 308 308 308 309 309 311 312 313 313 313 313 313 314 315 316 315 315 314 314 313 312 311 313 316 317 317 317 315 313 312 312 312 311 309 307 306 306 306 305 303 303 303 303 303 303 302 302 301 300 300 300 299 298 297 297 296 296 296
308 308 307 306 306 307 308 308 308 309 309 311 312 313 313 312 312 313 314 315 315 314 314 314 312 311 311 313 314 315 315 315 313 312 311 311 310 309 307 306 306 305 305 303 303 303 302 302 302 302 301 301 300 300 300 299 298 297 297 296 296 296 296
308 307 306 305 305 307 307 307 307 308 308 309 310 310 311 312 312 311 313 314 315 315 315 314 313 312 312 312 312 312 312 312 311 309 308 307 307 306 304 304 304 303 303 303 302 302 302 301 301 301 301 300 300 299 298 297 297 297 296 296 296 296 296
307 307 306 306 306 307 307 306 306 306 307 307 308 308 309 310 312 311 312 314 315 315 315 314 313 312 312 311 311 310 310 309 307 306 305 305 304 304 303 303 303 303 303 302 302 302 301 301 300 300 299 298 298 297 297 297 297 296 296 296 296 295 295
307 307 307 306 306 306 307 306 306 306 306 307 307 307 307 308 311 312 312 313 314 314 314 313 312 312 311 310 309 309 308 307 306 304 304 304 304 303 303 303 303 302 302 302 301 301 300 300 299 298 298 297 297 296 296 295 295 295 294 294 294 293 293
307 308 307 307 307 307 306 307 306 306 306 306 305 305 306 308 311 312 313 313 313 313 313 312 311 311 310 309 308 307 307 306 305 303 303 303 303 303 303 302 302 302 301 300 300 299 298 298 298 297 297 296 296 295 294 294 294 293 293 292 292 292 292
306 306 306 307 307 306 307 307 307 307 306 305 304 305 306 308 311 312 312 312 312 312 311 311 310 309 309 308 307 306 305 305 304 303 302 301 300 301 300 300 300 299 299 298 297 297 297 297 297 296 296 295 294 294 293 293 292 292 292 292 292 292 292
304 304 305 305 305 306 307 308 308 308 307 306 306 306 307 308 310 311 311 311 311 311 309 308 308 307 306 306 305 305 304 303 302 301 301 299 299 298 298 297 297 297 297 297 297 297 297 297 296 295 294 294 293 293 293 292 292 292 292 292 292 292 292
304 304 304 304 304 304 304 306 307 307 307 306 307 307 308 308 309 310 310 310 310 310 307 305 305 305 304 303 303 302 302 301 300 300 299 299 297 297 297 297 297 297 297 297 296 296 295 295 294 294 293 293 293 293 292 292 292 292 292 291 291 291 291
304 304 304 303 303 303 303 303 304 305 306 307 307 307 308 308 308 309 309 309 309 308 306 304 302 301 300 300 299 299 298 298 297 296 297 296 296 296 296 296 296 296 296 296 295 294 293 293 293 293 293 293 293 293 292 292 291 291 291 291 291 291 291

ECMWFFLT1_925_thetae_009.txt.gz
Theta_e
318 318 318 318 318 319 319 319 318 318 318 318 319 319 320 322 322 321 320 321 325 327 326 327 327 328 328 327 327 326 326 327 328 328 328 328 328 328 328 328 327 327 326 326 327 326 326 328 327 321 315 313 314 314 314 314 316 317 317 317 318 319 320
317 317 317 317 318 319 318 318 317 316 317 317 317 317 318 319 319 319 320 320 323 325 324 325 325 325 326 325 325 325 326 327 328 328 328 328 328 328 328 327 326 325 324 323 324 325 325 327 328 325 317 311 311 312 313 314 315 316 316 316 316 317 319
317 317 318 317 317 318 318 317 316 315 315 316 317 317 317 319 319 320 321 321 322 323 323 323 323 323 323 322 323 324 325 326 326 326 326 327 327 327 327 326 324 322 318 314 316 321 322 320 323 322 313 310 313 312 312 313 313 314 314 314 314 313 314
318 318 318 317 317 318 318 317 316 315 314 314 316 317 317 318 318 319 320 321 321 321 321 320 321 321 321 321 323 323 323 322 322 323 324 325 325 325 323 322 320 316 313 311 311 312 312 312 315 314 309 309 311 310 311 313 312 312 312 311 310 310 310
318 318 316 316 318 318 318 317 316 316 314 313 313 314 314 313 314 314 317 319 320 320 319 318 318 318 318 319 320 320 318 316 316 318 320 320 320 319 316 314 313 311 310 310 309 309 309 309 310 310 308 309 310 309 310 312 312 311 312 311 308 307 308
317 316 314 316 318 319 318 318 316 315 314 313 312 312 312 312 311 309 310 313 315 315 316 316 316 316 315 316 317 316 313 312 312 313 313 313 313 313 311 309 308 308 308 309 309 309 309 308 308 309 309 309 309 309 309 311 312 309 308 310 308 305 306
318 316 314 314 317 318 318 316 315 313 313 313 313 313 312 312 309 307 307 308 309 309 309 309 309 309 309 311 312 311 309 308 308 308 308 309 309 308 308 307 307 307 308 308 308 308 308 307 308 309 308 308 308 308 308 309 311 309 306 308 308 305 304
318 317 314 313 313 315 316 313 311 311 310 311 312 312 311 310 308 308 308 307 307 306 305 303 302 301 301 303 304 304 303 303 303 304 305 306 306 304 303 302 303 304 304 303 304 305 307 307 308 308 308 309 310 309 307 307 308 308 307 306 307 306 305
318 317 315 313 310 310 311 310 308 308 308 309 310 310 310 309 308 309 309 308 308 307 305 302 301 301 302 301 301 301 301 301 300 302 303 304 303 301 301 301 300 301 301 300 301 304 306 307 307 307 307 308 311 312 311 312 310 308 307 306 306 306 306
319 317 315 314 311 309 309 308 307 307 308 308 308 309 309 309 308 309 310 309 310 309 307 306 304 303 303 302 302 302 301 300 301 301 302 303 303 302 303 304 303 304 304 304 304 305 306 307 306 306 307 306 308 311 313 315 313 308 307 307 306 306 306
319 317 316 314 312 311 311 310 308 308 308 308 308 308 309 308 308 309 309 310 310 311 310 309 307 304 302 304 305 304 304 303 302 302 302 302 303 304 305 305 304 305 306 306 307 307 306 307 307 306 307 307 307 309 309 311 312 309 307 307 306 305 305
319 317 317 315 314 313 313 312 310 309 308 308 308 309 310 308 308 308 308 309 311 311 311 310 309 306 304 306 308 308 308 307 304 303 303 303 303 304 305 305 303 303 305 306 306 307 306 306 306 306 307 307 307 308 308 308 310 309 306 306 305 304 303
318 318 317 316 315 314 314 314 312 310 310 309 309 310 311 310 308 307 308 309 311 311 311 310 309 307 306 307 309 309 309 309 306 305 306 305 304 304 304 305 305 305 304 305 305 306 306 305 306 306 306 306 307 307 306 306 307 307 305 304 304 303 302
318 318 318 317 315 314 314 315 315 313 311 310 310 311 312 312 309 306 307 309 310 311 310 310 309 308 309 309 309 309 309 308 307 307 308 308 306 305 305 306 307 306 306 305 303 303 304 305 305 306 306 306 306 305 305 304 304 304 303 303 302 301 300
319 318 317 317 317 316 315 316 316 315 313 312 312 312 312 313 312 308 306 307 309 309 309 309 309 308 309 310 310 309 309 309 308 309 310 309 309 307 306 306 306 306 306 306 305 304 304 304 305 306 306 306 305 305 304 304 303 302 302 301 300 298 296
319 318 317 317 317 317 317 316 316 316 315 313 312 312 313 313 313 311 307 305 306 308 309 309 310 309 309 310 310 310 310 309 309 309 309 310 310 309 308 307 306 306 306 306 306 306 305 305 305 306 305 305 305 305 304 303 302 301 299 298 297 295 295
320 319 317 317 317 318 318 317 317 317 316 315 313 313 313 313 314 313 311 308 307 307 309 309 311 310 309 310 310 310 310 310 310 309 309 309 310 309 309 308 308 307 306 306 306 306 306 305 305 306 306 306 305 305 304 303 301 298 296 295 294 294 295
321 319 317 316 317 317 317 317 317 316 316 315 314 313 314 314 314 314 313 312 310 310 310 311 311 311 311 310 310 310 311 311 310 310 310 310 310 310 310 309 309 308 307 307 307 307 307 306 305 306 305 305 305 304 303 301 298 296 295 294 295 295 295
319 318 317 317 317 317 317 317 317 317 316 315 314 314 314 315 315 314 314 313 313 313 312 312 312 312 312 312 311 311 310 311 311 311 311 310 311 310 310 310 309 309 308 308 307 307 307 307 306 306 305 305 305 304 302 300 298 297 296 296 296 296 295
319 318 318 318 318 318 318 317 317 317 317 316 315 314 315 315 315 315 315 314 314 314 314 314 314 314 314 314 313 312 311 311 311 311 311 311 311 311 310 310 309 309 309 308 308 308 307 307 307 306 305 305 305 304 302 300 299 298 297 297 296 296 295
318 318 318 318 318 318 318 318 318 317 317 317 316 316 315 315 315 315 315 315 315 315 315 315 316 316 316 316 316 315 314 313 312 312 312 312 312 311 311 311 310 309 309 309 308 308 308 307 306 306 305 305 304 303 302 301 300 299 298 297 297 296 296
318 318 318 318 318 318 318 318 318 318 318 318 317 315 316 316 316 315 316 316 316 316 317 317 317 317 317 317 316 316 316 316 316 315 315 315 315 313 312 311 310 310 309 309 308 308 308 307 306 306 305 304 304 303 302 301 300 299 298 298 297 297 297
318 318 318 318 318 318 317 316 316 317 317 317 316 315 316 317 316 316 316 316 316 316 317 317 317 316 316 315 314 315 316 316 316 316 316 316 316 316 314 313 311 311 310 309 309 308 308 307 306 305 305 304 303 303 302 302 300 299 299 298 297 297 297
318 318 319 318 318 317 316 316 317 317 318 317 316 317 317 317 316 316 316 316 316 317 317 317 316 315 316 316 315 316 316 317 317 316 316 316 316 316 316 315 313 311 310 309 308 308 307 306 305 305 304 303 303 302 302 301 300 299 299 298 298 297 297
318 318 319 318 318 316 316 317 318 318 318 318 318 318 317 317 317 316 316 316 316 317 317 316 316 317 317 317 317 317 318 318 318 318 318 317 317 317 316 315 313 311 309 309 308 307 306 305 305 304 303 302 302 302 302 301 300 299 299 298 298 297 297
319 319 319 318 318 317 317 318 318 318 318 318 317 317 316 316 316 316 316 316 316 317 316 317 318 317 315 313 312 312 313 315 317 318 318 318 318 317 316 315 312 310 309 308 307 306 305 304 304 303 303 302 302 302 301 300 300 299 299 298 297 297 297
318 317 317 317 317 317 317 317 317 316 316 316 315 315 315 316 316 316 316 316 316 317 317 317 316 313 311 309 307 306 309 313 316 317 318 317 316 315 314 313 311 309 308 306 306 306 305 304 303 303 302 301 301 301 301 300 300 299 299 298 298 297 296
315 316 316 316 316 316 316 316 315 314 314 314 314 314 315 315 315 315 315 315 316 316 316 315 314 312 311 309 306 307 310 313 315 316 316 315 314 313 312 311 309 308 307 305 305 305 305 303 303 302 301 301 301 301 301 300 300 299 299 298 297 297 296
314 314 314 313 313 312 312 312 311 311 312 313 313 313 313 312 312 312 313 314 314 315 314 314 313 313 312 310 307 308 312 313 314 314 313 312 312 311 311 309 308 306 306 305 305 304 303 302 302 302 301 301 301 301 300 300 299 299 298 297 297 296 296
310 310 309 308 308 308 308 308 308 308 309 310 311 311 311 311 312 311 312 312 312 313 313 314 313 312 312 310 308 309 311 312 312 311 310 310 309 310 309 307 305 305 305 305 305 303 303 303 302 302 302 302 301 300 300 299 298 297 297 296 296 295 295
308 307 307 306 306 307 307 307 307 306 307 307 308 308 309 309 310 311 311 311 312 313 313 313 313 312 311 311 309 309 310 310 310 309 308 307 307 306 306 304 303 304 304 304 303 302 302 302 301 301 301 300 300 299 298 297 297 296 296 295 294 294 293
307 307 306 305 304 305 306 306 306 305 306 306 307 307 307 308 308 309 311 312 312 313 314 313 312 312 311 310 309 309 309 309 308 307 306 305 305 304 303 303 303 303 303 302 302 302 301 301 301 300 300 299 299 298 297 297 296 295 295 294 293 293 293
307 307 307 306 305 304 305 306 306 305 305 306 306 306 306 306 306 308 311 312 313 314 313 312 311 310 309 309 309 308 307 307 307 306 305 304 304 303 303 302 302 302 301 301 301 300 300 299 299 299 298 298 297 296 296 295 294 294 293 293 293 292 292
306 306 306 306 306 305 305 306 306 306 306 306 305 304 304 304 305 306 309 311 312 312 312 311 310 309 308 307 307 306 306 306 305 305 304 304 303 303 302 301 300 300 299 299 299 298 298 298 297 297 296 296 295 294 294 293 293 293 292 292 292 292 291
305 305 306 306 306 306 306 306 307 307 307 306 306 305 304 304 304 305 306 309 310 311 310 309 309 308 307 306 305 305 305 304 303 303 303 302 301 300 300 299 298 298 297 297 297 297 297 296 295 295 295 294 293 293 293 293 292 292 292 291 291 291 291
304 304 304 304 304 305 305 305 306 307 307 307 306 306 306 305 305 305 305 307 309 309 308 308 307 307 306 305 304 304 303 303 302 301 300 300 299 298 297 297 297 296 296 297 296 296 295 294 294 293 293 293 293 293 293 292 292 291 291 291 291 291 291
304 304 304 303 303 303 303 303 304 304 305 306 307 306 306 306 306 306 306 307 308 309 308 307 306 305 304 304 303 302 301 301 300 299 298 298 297 297 297 296 296 296 296 296 295 295 294 293 293 293 293 292 292 292 292 291 291 291 291 291 291 291 290

ECMWFFLT1_925_thetae_012.txt.gz
Theta_e
322 321 320 319 319 319 319 319 318 318 318 318 319 318 320 323 322 320 320 322 325 327 327 327 326 327 327 327 326 326 326 326 326 327 326 326 325 324 327 327 326 326 325 324 324 323 325 327 324 317 310 310 312 312 312 311 311 312 312 314 316 318 319
321 320 319 319 319 318 318 318 318 318 318 318 318 318 319 321 320 318 318 320 324 325 325 326 325 325 325 326 326 325 325 326 327 327 327 327 326 326 327 326 324 322 322 324 325 322 322 325 324 319 312 310 311 310 309 308 308 308 309 310 311 313 315
319 318 319 318 318 318 318 318 317 317 317 317 317 317 318 319 318 318 318 319 322 323 323 323 324 324 324 324 324 324 325 326 326 327 327 327 327 327 327 326 322 317 315 317 317 316 315 314 316 315 310 309 311 310 309 308 306 306 307 308 308 309 309
318 318 318 318 318 318 317 316 317 316 317 316 316 317 317 317 317 318 318 319 320 321 321 321 321 322 321 322 323 323 323 324 325 326 326 327 326 325 324 322 318 314 312 310 309 309 309 309 312 311 308 308 310 310 310 309 307 307 306 306 306 306 306
318 316 315 317 317 317 316 315 316 316 315 315 316 316 316 317 317 317 318 319 320 320 320 320 320 320 320 321 321 319 319 321 322 323 324 324 323 320 317 314 312 311 310 308 307 308 307 307 308 309 307 308 308 309 310 310 308 308 307 305 305 304 304
317 314 312 315 316 317 316 315 315 315 315 315 316 317 316 316 316 316 318 319 319 319 319 319 318 319 320 319 318 315 314 315 317 318 318 318 316 314 311 309 308 308 308 308 307 306 306 304 305 306 307 307 308 308 309 308 307 307 307 306 304 304 303
316 313 311 312 314 316 316 316 315 315 315 314 315 314 313 313 314 315 317 318 318 318 317 317 316 316 317 316 316 314 312 311 311 311 311 311 309 308 307 306 306 305 305 306 304 303 304 304 305 306 306 306 306 305 307 307 306 306 306 306 305 304 303
316 314 313 311 313 315 316 316 316 315 315 313 313 312 312 312 310 310 313 315 314 313 312 311 311 312 313 314 313 310 307 307 307 307 307 306 304 303 302 302 302 301 302 303 304 305 305 305 306 306 305 307 307 306 305 306 307 306 306 306 304 303 302
315 315 314 312 312 315 316 316 316 315 314 313 312 312 312 310 307 307 308 308 306 305 304 303 304 305 307 308 306 303 303 303 304 304 304 302 300 300 300 300 300 300 301 304 305 306 306 306 307 307 306 307 309 310 311 309 307 306 306 305 304 303 301
316 316 316 313 312 314 315 315 315 313 312 313 313 312 311 309 307 307 307 305 304 302 300 300 302 302 303 303 303 302 302 302 302 302 302 301 300 301 301 301 301 302 303 306 306 306 307 306 307 308 308 307 307 311 315 313 309 307 306 304 303 301 299
315 314 316 315 313 314 313 314 315 312 311 312 312 311 310 309 309 309 308 307 306 303 301 302 302 302 302 303 303 303 302 302 302 303 302 302 302 302 303 303 304 304 306 306 306 307 306 306 306 306 308 307 306 308 310 311 310 307 305 304 302 299 296
314 312 315 317 315 314 312 312 313 311 310 310 311 311 310 310 310 310 309 309 308 306 304 303 302 302 303 303 303 302 302 302 302 302 303 303 303 303 303 304 305 306 306 306 306 306 305 305 306 306 307 307 306 306 306 307 308 306 304 303 300 297 295
316 314 315 317 316 315 313 311 311 310 309 309 309 310 310 310 311 310 310 309 310 309 308 306 303 302 304 305 304 304 303 302 302 303 303 304 304 304 302 303 305 306 306 306 305 305 305 305 306 306 306 306 305 305 304 304 305 304 303 301 297 295 295
316 316 317 317 317 315 314 313 311 310 309 309 309 308 309 310 311 311 310 310 311 311 310 309 306 304 306 307 308 308 307 305 304 304 304 304 304 304 304 304 304 304 304 304 303 304 304 305 305 305 305 306 305 305 305 304 303 302 301 299 296 295 295
315 317 318 318 318 316 315 315 314 313 311 310 309 308 309 310 310 311 310 310 311 311 310 310 309 307 307 308 309 309 308 307 307 306 307 306 305 305 305 305 305 305 305 304 304 304 304 305 305 305 305 305 306 305 305 304 301 299 297 296 295 295 296
316 317 318 317 318 318 317 317 315 314 313 312 311 309 309 310 311 311 310 309 310 311 311 310 310 308 308 308 309 309 309 309 308 308 308 309 308 306 306 306 306 306 306 306 305 305 305 305 304 305 305 305 306 305 304 303 300 298 296 296 296 296 296
316 317 317 317 318 318 317 317 317 315 314 314 313 311 310 311 312 312 311 309 309 309 310 310 310 309 308 309 309 309 310 310 309 309 309 309 309 308 308 307 307 306 306 306 306 306 306 305 305 305 305 305 305 305 303 302 300 299 298 297 297 296 296
316 316 317 317 318 317 317 317 317 316 315 314 314 313 312 311 312 313 313 311 309 309 309 309 310 310 309 310 310 310 310 310 310 310 310 309 309 309 309 309 308 307 306 306 306 307 306 306 306 305 305 305 305 304 303 301 300 301 300 299 297 296 297
316 317 318 318 318 317 317 317 317 317 315 314 314 313 313 313 312 313 313 312 312 311 310 309 309 310 310 311 310 310 310 310 310 310 310 310 310 310 310 310 309 309 308 307 307 307 307 306 306 306 305 305 304 303 303 301 301 302 302 300 298 297 297
316 317 317 317 318 317 316 317 317 316 316 315 315 314 314 314 313 314 313 313 313 313 313 313 312 312 312 312 311 311 311 310 310 310 311 311 310 311 311 311 311 310 309 308 308 308 307 307 306 306 305 305 304 303 302 301 301 302 302 300 298 298 298
317 317 316 316 317 317 316 317 316 316 316 316 316 316 316 315 314 314 314 314 314 314 314 314 315 315 315 314 314 314 313 312 313 312 312 312 312 312 312 312 313 312 311 309 309 309 308 307 307 306 305 305 304 303 302 301 302 302 301 300 299 299 299
317 317 317 317 317 317 316 316 316 316 316 315 315 316 317 316 315 316 316 315 315 316 315 315 314 314 315 316 316 316 316 315 315 315 315 315 315 314 314 314 315 315 314 312 309 308 308 308 307 307 306 305 304 303 302 302 303 303 301 300 299 299 299
318 318 318 318 317 317 317 317 317 316 315 315 315 316 317 316 316 317 316 315 315 316 315 315 313 313 314 316 316 316 315 315 315 314 314 315 316 316 316 316 316 315 316 315 311 308 308 308 307 307 307 306 304 303 302 302 303 303 301 300 299 299 299
318 318 318 318 318 318 318 317 317 316 316 316 315 316 317 316 316 316 315 313 315 315 315 315 314 313 314 316 316 316 317 317 316 316 316 317 317 317 317 317 317 316 316 316 313 310 308 307 307 307 306 305 304 303 302 303 302 302 301 300 299 299 298
318 318 318 318 318 317 317 317 317 317 317 316 316 317 317 316 316 315 314 314 314 315 316 315 314 314 316 316 316 315 314 314 316 316 317 317 318 318 318 318 317 317 316 316 314 312 309 307 307 307 305 304 303 302 302 302 302 301 301 300 300 299 298
318 318 318 318 318 317 317 317 317 317 316 316 316 317 317 316 315 315 314 314 315 316 316 315 315 316 316 315 312 309 309 311 313 315 316 316 317 317 317 317 316 316 315 315 314 312 309 307 306 305 304 303 302 301 301 302 302 301 300 300 300 299 298
318 318 317 317 317 317 317 317 316 316 316 317 317 317 317 316 316 316 315 315 316 316 316 315 316 316 315 311 308 306 307 311 313 313 314 315 315 315 314 314 314 313 313 312 311 309 307 306 305 304 303 302 301 301 301 301 301 300 300 299 299 297 297
317 317 317 317 317 317 317 316 316 317 317 317 317 317 317 317 317 317 316 316 316 316 316 316 316 314 312 310 308 305 306 308 309 310 311 312 312 313 312 312 312 311 310 309 308 307 306 305 304 303 302 301 300 300 301 301 300 299 299 298 298 297 297
315 316 316 317 317 317 317 316 317 317 317 317 317 317 316 316 316 316 316 316 316 316 316 316 315 312 311 310 309 307 306 307 307 308 310 310 310 311 311 311 310 308 307 306 305 304 304 304 303 302 301 300 300 300 300 300 299 298 298 297 297 296 296
313 314 316 316 316 316 316 317 317 316 316 316 315 315 314 314 314 314 315 315 315 315 316 315 313 312 311 310 309 308 308 307 307 308 309 309 309 309 309 309 308 306 305 304 303 303 303 303 302 301 301 300 300 300 299 299 298 297 296 296 295 295 294
312 313 314 315 314 314 314 314 313 313 313 313 313 312 313 312 312 313 313 313 314 315 314 313 312 312 311 310 309 309 308 308 308 308 308 308 308 307 306 306 305 304 304 303 303 303 303 302 301 301 301 301 300 299 298 297 296 296 295 295 294 293 293
310 310 311 311 310 310 310 309 308 309 309 310 310 309 310 310 311 311 312 312 312 313 313 313 312 312 311 310 309 309 308 308 308 308 307 307 306 305 304 303 303 302 302 302 302 301 301 301 301 300 300 299 298 298 296 296 295 294 294 294 293 293 292
308 307 307 307 307 307 306 306 306 306 307 307 307 307 307 307 308 310 311 311 312 313 313 312 312 311 310 309 309 308 308 307 307 307 306 305 304 303 303 302 301 301 301 301 300 300 300 299 299 298 298 298 297 296 295 294 294 293 293 293 292 292 292
307 306 306 306 306 306 306 306 305 305 306 306 306 306 306 305 305 307 309 310 311 312 312 311 311 310 309 308 307 307 306 306 306 305 305 303 303 302 301 301 300 300 299 299 299 299 298 298 297 297 296 295 295 294 293 293 293 293 292 292 292 291 291
305 306 306 305 305 305 305 305 306 306 306 305 304 304 305 304 304 305 306 308 310 310 310 310 309 309 308 308 307 306 306 305 304 304 303 302 301 301 300 300 299 298 298 298 297 297 297 296 296 295 294 294 293 293 293 293 292 292 292 291 291 291 291
305 305 306 306 305 306 305 305 306 306 306 305 305 304 305 305 304 304 305 306 307 308 308 309 309 309 309 308 307 306 306 305 304 303 302 301 300 299 298 298 297 297 296 296 296 296 295 294 294 293 293 293 293 292 292 292 292 291 291 291 291 290 290
303 304 304 304 305 305 305 306 306 306 306 306 306 306 306 305 304 304 304 304 305 306 307 308 309 309 308 307 306 305 304 304 303 301 300 299 299 298 297 296 296 296 296 295 295 294 294 293 293 292 292 292 292 292 291 291 291 291 290 290 290 289 289

ECMWFFLT1_925_thetae_015.txt.gz
Theta_e
323 323 322 320 320 319 319 319 318 318 318 318 318 320 322 321 320 319 320 323 324 325 327 328 327 328 327 328 327 327 327 327 327 328 327 326 327 327 325 326 326 323 323 324 324 324 323 318 314 312 311 310 309 310 310 310 310 311 312 311 312 313 315
321 321 320 319 319 319 319 318 318 318 317 318 317 318 322 321 319 317 318 322 324 325 326 327 327 327 328 328 327 327 327 326 327 328 327 327 327 327 327 327 326 326 325 324 323 323 320 316 313 313 313 311 310 310 309 309 308 308 308 308 309 309 310
321 320 319 319 318 318 318 318 317 318 317 318 317 317 320 320 318 317 318 322 325 324 325 325 326 327 327 327 327 327 327 326 326 328 328 328 327 327 327 326 324 324 324 322 319 317 315 314 313 314 315 313 312 311 310 309 308 307 306 306 307 307 307
321 320 319 318 318 318 318 317 317 317 317 317 317 317 318 318 317 318 319 322 323 323 323 324 324 324 325 325 325 326 326 327 327 327 327 327 327 327 326 324 321 320 319 317 315 312 310 312 313 314 315 314 313 311 310 309 307 307 306 306 305 305 305
321 320 318 317 316 317 317 317 317 317 316 316 316 316 317 317 317 316 318 320 321 321 322 322 321 322 322 322 323 324 325 326 326 327 327 326 325 324 321 318 315 315 314 312 312 311 310 311 313 314 314 313 312 311 310 310 308 306 306 305 305 304 305
320 319 318 315 314 315 316 316 316 315 315 315 316 316 316 316 316 316 318 320 320 320 320 320 319 321 320 318 319 320 322 323 324 324 324 322 320 317 313 311 311 311 309 307 307 307 308 310 312 314 313 313 313 310 309 310 309 307 306 305 304 303 303
320 319 316 314 313 314 315 315 315 315 315 315 316 316 315 315 316 317 319 319 319 319 319 319 319 320 318 315 315 316 316 317 318 318 317 315 313 311 309 307 306 305 303 303 304 305 307 310 311 313 312 313 313 310 309 309 309 309 307 304 302 301 300
320 317 315 314 314 314 315 315 315 314 314 315 316 315 313 313 314 316 318 318 318 317 316 317 317 316 315 315 314 312 311 312 312 311 311 309 307 306 305 303 302 301 301 302 305 307 309 309 310 312 313 313 312 311 310 309 309 308 307 305 302 300 299
318 316 315 315 315 315 315 315 315 315 314 314 313 312 311 311 311 315 317 316 316 315 314 314 314 313 313 313 310 308 308 308 307 306 304 303 302 301 301 300 301 303 303 305 306 307 308 307 308 310 311 312 312 311 310 310 309 308 306 305 302 299 299
316 316 315 315 314 314 316 316 315 315 314 313 312 311 311 309 308 311 312 311 311 310 309 310 310 311 310 308 306 305 306 305 303 302 300 300 299 300 300 300 302 305 306 306 307 307 307 307 307 308 310 311 311 310 310 309 310 309 306 304 301 300 299
316 316 316 316 313 312 314 316 316 315 313 313 312 311 311 309 307 308 308 308 306 303 302 303 305 306 305 303 303 304 304 303 301 301 301 301 301 301 301 303 305 307 307 307 307 306 306 306 307 308 308 309 311 310 311 310 309 309 307 302 300 300 299
315 313 313 314 312 310 313 316 316 314 312 311 312 312 311 309 308 308 308 307 305 302 301 300 301 301 301 301 302 303 303 303 303 304 304 303 303 304 304 305 306 307 307 306 306 306 306 306 307 309 308 308 309 309 311 311 309 308 306 302 300 299 297
313 310 311 312 312 313 315 316 316 314 311 309 310 311 311 310 309 309 309 308 307 306 305 302 300 301 302 302 302 302 303 303 304 305 305 304 304 305 306 306 307 307 306 306 306 306 305 305 306 308 308 308 308 308 309 310 309 307 304 301 300 299 296
313 312 312 312 313 316 317 316 316 315 312 309 308 309 310 310 310 310 310 309 310 310 309 306 304 304 305 306 305 305 303 303 304 304 305 304 304 304 305 306 305 305 305 305 305 305 305 306 306 306 307 308 308 308 308 308 308 307 304 300 299 298 297
315 313 313 312 314 316 316 316 317 316 314 310 308 308 308 309 310 311 311 310 310 311 311 310 307 306 307 308 309 309 307 306 305 305 305 305 304 304 305 305 305 304 304 303 304 306 306 306 306 306 307 308 307 306 306 306 306 306 304 301 300 299 298
315 315 314 313 315 316 316 316 317 317 315 312 310 309 309 308 310 311 311 310 310 311 311 311 310 308 308 308 309 310 309 308 308 308 308 307 306 305 306 306 306 305 305 305 305 306 305 306 307 307 306 306 306 304 304 304 305 306 305 302 300 300 299
315 315 314 314 315 316 317 317 317 317 316 313 311 311 310 309 309 311 311 310 310 311 311 311 311 310 309 308 308 309 309 310 309 309 309 309 308 308 307 307 307 306 306 306 306 306 305 305 306 306 306 305 304 304 303 303 305 305 305 303 301 299 300
315 314 314 314 315 317 317 317 317 317 317 315 313 312 311 310 310 311 311 311 310 310 310 310 310 310 310 309 309 309 309 310 310 310 309 310 309 309 309 308 308 307 307 307 306 306 306 306 306 306 306 305 304 304 303 303 304 305 306 305 302 300 300
314 314 314 315 316 316 317 317 317 317 317 317 314 313 312 311 311 311 312 312 311 310 310 310 310 310 311 311 312 311 311 311 311 311 310 310 310 310 310 310 309 309 309 308 307 307 307 306 306 306 306 305 304 304 303 303 304 305 305 304 303 302 301
314 314 314 315 315 316 316 317 317 317 317 317 315 314 313 312 312 312 313 313 312 313 313 313 312 312 313 314 314 314 314 314 314 313 313 312 312 312 311 311 310 309 309 309 309 308 307 307 306 306 306 305 305 304 303 303 304 305 306 304 304 303 302
315 314 314 314 315 316 316 317 317 317 317 316 316 315 314 313 313 313 313 313 313 314 314 313 314 314 314 314 315 315 315 316 316 316 316 316 315 315 315 314 313 313 312 311 311 310 309 307 307 307 306 305 305 304 303 303 304 305 306 305 305 304 303
316 315 315 315 315 316 316 316 317 317 317 316 316 315 315 314 314 314 314 314 314 314 314 314 314 314 314 314 313 314 315 316 316 316 316 316 316 314 314 315 316 315 315 314 313 312 311 309 307 307 306 306 305 304 303 303 305 306 305 306 305 304 305
317 316 316 316 317 316 316 316 316 316 316 316 316 316 315 315 315 315 315 315 315 315 315 315 314 313 314 313 312 313 314 315 316 316 316 316 316 314 314 315 316 315 315 316 315 315 314 312 309 307 306 307 306 304 303 303 305 305 305 306 306 305 305
317 317 317 317 317 317 316 316 315 316 316 316 316 316 315 315 315 315 315 315 315 316 316 315 314 313 313 314 313 312 313 315 316 317 317 317 317 317 317 317 317 317 317 317 316 316 316 314 311 307 306 306 306 304 303 303 304 304 305 305 304 303 303
318 318 318 318 317 317 316 316 316 316 316 316 316 315 315 316 316 315 315 314 315 316 316 314 313 313 314 315 314 314 315 316 314 314 315 316 316 317 317 317 317 317 317 317 317 316 315 315 312 307 305 305 304 303 302 302 303 303 303 304 303 302 302
318 318 318 318 318 317 317 316 316 316 316 316 315 315 315 315 315 315 315 314 315 316 316 314 313 314 315 315 315 315 314 311 308 309 312 314 315 315 315 315 315 316 316 315 315 314 313 312 311 307 305 304 302 301 301 301 302 302 302 303 303 303 302
317 318 317 317 317 317 317 316 316 316 316 316 315 315 315 314 314 315 314 315 316 316 315 314 313 314 315 316 315 312 309 307 308 311 312 312 313 313 313 314 314 313 313 313 312 311 310 309 308 306 304 302 300 300 301 301 301 301 301 301 301 301 299
317 317 317 317 317 317 317 316 316 316 316 316 315 315 315 315 315 315 315 316 316 315 314 314 314 315 316 315 311 307 306 307 309 309 310 310 310 311 311 312 312 311 310 310 309 308 307 307 307 304 302 300 299 300 300 300 301 300 300 299 299 298 298
315 316 317 317 317 317 317 316 316 316 315 315 315 315 315 315 316 316 316 316 315 315 315 315 315 316 315 311 308 306 306 307 307 308 309 309 309 309 309 309 309 308 307 306 306 305 305 305 304 302 300 299 299 299 299 300 300 299 299 299 298 298 297
311 313 314 315 316 316 317 316 316 316 315 315 315 315 315 316 316 317 316 315 315 316 315 316 316 315 312 309 307 307 307 308 307 308 309 308 308 308 307 308 307 306 305 304 303 303 302 302 301 300 300 299 299 299 299 299 299 298 298 297 296 296 296
308 311 312 313 314 315 316 316 316 316 315 315 315 315 315 315 316 316 315 315 315 315 315 316 315 313 310 309 308 308 308 308 308 308 308 307 307 306 305 305 305 305 304 303 303 303 302 301 300 300 300 299 299 299 298 297 297 296 296 295 295 294 294
305 308 311 313 314 314 315 316 316 316 316 316 316 315 314 314 314 314 314 315 315 315 316 315 313 311 310 310 309 308 308 308 308 308 307 306 305 304 304 303 303 303 303 302 302 302 302 301 301 300 300 300 300 298 297 296 295 294 294 294 294 293 293
304 305 308 311 313 314 314 314 315 315 315 314 314 313 313 312 313 313 314 315 315 315 315 313 312 311 311 310 309 309 308 308 308 308 306 305 303 303 302 302 302 301 301 301 301 301 301 301 300 300 299 300 299 297 296 295 294 293 293 293 293 293 293
302 303 305 307 309 310 311 311 310 310 312 312 311 311 311 312 311 311 312 314 314 314 313 312 311 311 310 310 310 309 308 308 308 307 306 303 302 301 301 301 300 300 300 301 300 300 300 299 299 298 298 297 297 295 295 294 293 293 293 293 293 293 293
302 302 303 304 306 307 308 307 307 308 309 309 309 309 310 310 311 311 312 313 313 312 312 312 311 311 310 310 310 309 308 308 307 306 305 303 302 301 301 300 300 299 299 299 299 298 298 297 297 296 295 295 295 294 294 293 293 293 293 293 294 294 294
300 301 302 303 304 305 306 306 306 306 306 307 307 307 308 309 310 310 311 312 312 312 311 311 310 310 310 310 309 308 308 307 306 305 304 303 302 301 300 299 298 298 297 297 297 297 296 295 295 294 294 294 293 293 293 293 293 293 293 293 293 293 294
299 300 301 302 303 304 305 305 305 306 305 306 306 306 306 306 306 307 309 310 311 311 310 310 309 309 309 308 307 306 306 305 304 303 303 302 301 300 299 298 297 296 296 296 296 295 295 294 294 293 293 293 293 292 293 293 293 293 293 293 293 293 293

ECMWFFLT1_925_thetae_021.txt.gz
Theta_e
329 328 326 326 326 325 325 325 323 324 325 325 325 326 326 326 326 326 327 326 325 325 325 326 327 327 327 328 330 330 329 329 329 328 328 329 330 330 331 330 329 330 329 327 326 326 325 322 321 321 320 319 319 319 319 319 318 319 318 319 320 321 321
327 325 324 323 324 325 325 324 322 322 324 325 326 326 326 325 325 325 325 325 325 324 322 324 324 326 328 331 332 331 331 331 330 330 330 330 329 330 331 330 328 328 328 327 325 326 325 321 320 319 318 318 318 317 317 317 317 317 316 317 317 318 319
325 325 323 323 324 324 324 323 322 321 322 324 326 325 325 325 325 325 325 326 325 325 324 324 326 328 332 333 333 333 332 331 331 331 330 330 329 330 329 329 328 327 327 327 326 326 324 321 319 319 318 318 317 317 316 315 315 315 315 315 315 315 316
326 325 324 323 323 323 322 322 323 323 322 323 325 325 325 325 325 326 326 325 325 325 325 325 325 328 331 332 332 332 332 332 331 330 331 330 329 329 328 327 326 326 325 325 325 324 322 320 318 318 318 317 316 315 315 314 313 313 313 313 314 314 314
325 325 325 323 322 322 322 322 322 322 322 323 324 325 324 324 325 326 326 325 325 325 325 324 324 325 327 329 330 331 331 331 330 330 330 330 329 329 327 325 323 323 322 321 321 320 319 318 319 318 317 315 315 314 314 313 312 311 310 310 311 312 313
326 326 326 323 322 322 320 321 321 320 321 323 323 323 323 323 324 325 325 325 325 325 325 325 324 325 324 326 329 331 330 330 329 329 330 329 328 326 324 321 320 319 318 317 318 318 317 318 318 317 316 315 315 314 313 313 311 309 309 308 309 310 311
328 327 326 323 322 321 319 321 321 321 322 323 323 322 322 323 324 324 324 324 324 324 325 324 324 323 323 324 326 328 327 327 326 325 326 325 323 322 320 317 315 314 313 314 314 315 315 317 317 316 316 315 315 315 314 313 312 309 308 307 307 308 310
329 327 325 322 321 321 320 320 321 322 323 323 322 322 322 323 323 323 323 323 323 323 324 323 323 322 322 322 323 324 323 322 321 321 321 320 319 317 316 313 313 313 312 312 313 313 314 316 316 316 316 315 314 315 314 313 313 311 309 308 307 308 309
329 327 324 321 321 321 320 321 321 322 322 321 321 320 321 321 321 320 320 321 322 322 322 322 322 321 321 321 321 320 318 318 317 317 317 317 316 315 314 313 314 314 314 313 313 314 314 315 315 315 315 315 315 315 314 314 313 310 310 309 308 308 307
328 327 324 322 322 322 322 323 323 322 322 320 320 319 320 320 319 318 318 318 319 320 320 320 319 319 318 317 317 317 316 316 315 315 315 315 315 315 315 315 315 315 315 315 314 314 314 315 315 315 316 315 315 315 315 315 314 312 311 310 308 308 307
328 328 324 321 321 321 322 323 322 321 320 319 319 318 318 319 318 316 316 316 317 317 317 316 315 315 315 314 314 314 314 314 314 314 314 314 315 316 316 316 317 317 317 317 316 315 315 315 315 316 315 315 316 316 315 316 315 313 312 311 309 308 307
329 327 322 320 319 317 318 318 320 321 320 318 317 316 315 315 315 314 313 314 315 315 315 314 313 313 312 312 312 312 312 312 313 314 314 315 316 317 317 317 317 317 316 316 317 317 316 316 315 315 315 316 317 317 316 316 316 314 313 312 310 308 308
328 324 320 319 318 318 317 317 319 321 319 317 317 315 314 314 314 313 312 312 313 313 313 313 312 312 311 311 311 311 312 312 312 313 314 315 316 317 317 316 316 316 316 316 315 316 317 316 316 316 316 316 317 317 317 317 316 315 313 312 310 308 308
326 323 320 319 320 319 318 318 318 319 318 317 316 315 314 314 313 312 311 311 312 312 313 313 312 312 312 312 312 312 312 312 313 314 315 315 315 316 315 315 315 315 315 315 315 315 314 315 315 315 315 316 316 316 316 316 316 314 313 312 310 309 308
326 324 322 321 321 321 321 321 319 318 318 318 316 314 315 315 314 313 312 312 311 311 312 312 312 313 313 313 313 314 313 313 313 314 314 315 315 315 314 314 314 314 314 314 314 314 314 314 315 315 315 316 315 315 315 315 316 315 315 313 311 309 309
324 324 324 322 321 322 324 323 321 318 317 317 316 315 315 315 315 314 314 313 312 311 312 313 313 313 313 314 314 315 314 314 314 314 313 313 314 315 314 314 314 314 315 315 315 314 313 314 314 315 315 315 315 315 315 315 315 315 315 314 312 311 309
323 323 324 322 322 323 324 323 322 319 317 317 316 316 315 314 315 315 315 315 314 312 312 314 314 314 314 314 314 315 315 315 315 315 314 313 313 314 315 316 315 315 316 316 316 315 314 315 315 315 315 315 315 315 315 316 315 315 315 314 314 312 311
323 323 323 322 321 324 324 322 322 320 318 317 316 317 316 314 314 315 315 315 315 315 314 314 315 316 316 315 316 316 316 316 316 317 316 315 315 316 316 317 317 317 317 318 317 317 316 316 315 315 315 315 315 315 315 315 315 315 315 315 315 313 313
324 324 323 323 322 324 323 322 322 321 320 318 317 318 317 315 315 315 314 314 315 315 315 315 315 316 317 317 317 317 317 318 318 318 318 317 317 317 318 318 318 318 318 318 318 317 317 317 317 316 316 316 315 314 315 315 315 315 315 315 315 314 314
325 324 324 323 323 324 324 322 321 321 320 320 319 319 317 317 316 315 314 314 314 314 315 315 315 315 315 317 318 318 319 319 319 319 319 319 318 318 319 318 318 318 318 318 318 317 317 317 317 317 317 316 316 315 314 315 315 314 315 315 315 314 314
326 325 324 324 324 324 324 322 321 321 320 321 321 320 318 317 317 316 315 314 314 314 315 314 315 316 316 317 319 320 321 321 321 321 321 320 320 320 320 319 319 319 318 318 318 318 318 318 318 318 318 316 316 315 314 314 314 314 314 314 314 314 313
326 325 325 325 325 325 324 323 322 322 322 322 322 322 320 319 318 317 316 315 315 315 314 315 316 316 317 319 320 321 322 322 322 322 322 321 322 322 321 320 319 319 318 318 318 317 317 317 317 318 319 317 316 316 314 313 314 314 314 314 314 313 313
327 326 325 325 325 325 324 323 323 322 322 323 322 322 321 320 320 318 317 317 316 316 316 316 316 317 318 319 320 321 321 321 320 319 320 320 321 321 321 320 318 318 319 319 319 317 316 316 316 316 317 317 316 316 315 314 314 314 314 314 314 313 313
326 326 325 325 325 325 324 324 324 324 323 323 323 323 321 321 321 320 318 318 318 318 319 319 318 318 319 320 319 320 321 319 317 316 316 317 318 318 319 318 316 316 317 319 320 319 316 316 317 317 316 316 315 315 315 315 315 315 314 313 313 313 313
325 325 325 325 325 325 325 325 325 324 324 324 323 323 322 322 322 322 320 320 320 321 322 322 320 319 318 318 318 318 319 317 315 315 314 315 317 317 317 318 316 315 316 319 320 319 316 315 316 317 317 317 315 314 313 312 312 312 313 313 313 312 312
324 324 324 324 324 324 324 324 324 324 324 323 322 322 322 322 322 322 322 321 321 323 323 322 320 317 316 316 315 316 317 317 316 315 315 316 318 318 317 318 316 316 317 318 317 317 317 317 317 316 317 317 316 314 312 310 308 308 309 310 311 311 312
322 323 323 323 323 323 322 323 323 323 323 322 322 322 323 322 322 322 322 322 323 323 323 321 318 315 315 315 315 315 316 317 318 316 316 318 318 318 318 317 315 316 318 317 316 316 318 318 316 315 314 313 313 312 310 308 307 306 305 306 307 309 310
319 320 322 322 322 322 322 322 323 323 323 323 323 322 321 320 320 321 322 321 322 322 321 319 317 315 315 315 315 314 314 318 320 318 316 318 318 317 317 315 314 316 317 315 313 315 317 317 314 312 311 310 309 309 308 306 306 306 306 307 307 308 308
314 315 317 320 321 321 322 322 322 323 323 323 323 323 321 319 319 320 320 320 319 319 320 319 318 316 315 315 315 314 314 318 320 319 317 317 316 315 315 314 314 315 314 312 311 312 315 316 314 312 311 310 309 308 307 306 305 305 305 305 304 305 304
312 312 313 315 317 318 320 320 321 322 323 323 323 323 322 320 320 320 320 319 319 319 319 319 319 317 317 317 316 315 316 318 319 318 316 314 314 313 312 313 315 313 310 310 310 310 311 313 313 312 312 311 309 307 305 303 302 301 301 302 302 302 302
310 311 312 312 314 315 316 317 318 319 320 321 323 323 323 322 322 322 321 320 319 319 319 320 320 318 319 319 317 316 316 317 317 316 313 312 312 310 309 312 313 311 308 308 309 308 309 311 312 312 311 310 309 308 305 302 301 301 301 302 302 302 301
309 310 311 311 312 313 314 315 316 317 318 319 320 321 322 322 322 322 321 321 320 320 320 320 319 318 318 318 317 316 316 316 315 314 312 311 310 308 308 310 311 308 307 307 307 307 308 310 311 311 310 310 309 309 307 305 305 305 304 304 304 303 303
307 309 310 310 310 311 312 313 314 315 316 317 318 319 320 321 322 321 321 321 320 320 320 320 318 317 317 316 316 315 316 315 314 312 311 309 308 307 307 308 307 306 306 306 305 305 306 308 310 310 310 309 309 308 308 306 306 305 304 304 304 304 303
305 306 308 308 309 310 311 311 312 313 315 315 316 317 318 320 321 321 321 321 320 319 319 319 318 316 315 315 314 314 315 313 311 310 309 307 307 307 306 305 305 305 305 305 305 304 305 306 309 309 309 308 308 307 306 305 304 303 302 302 303 303 302
303 304 305 306 307 309 310 310 311 311 313 314 315 316 318 319 320 320 320 319 319 319 318 318 317 315 314 315 314 313 313 313 310 309 309 308 308 308 306 304 304 304 304 304 304 304 304 304 305 306 305 304 304 303 303 302 303 302 302 302 302 301 301
302 302 303 304 305 307 308 309 310 311 312 313 314 315 316 317 318 318 319 319 319 318 318 318 317 315 313 314 313 310 310 311 311 310 310 309 308 308 305 304 304 304 303 303 303 302 302 302 302 302 301 301 300 299 299 300 301 301 301 301 300 300 300
302 302 302 303 304 304 306 307 309 309 310 312 313 313 315 317 317 316 317 318 318 317 317 317 316 314 314 313 311 309 309 311 312 311 309 309 308 307 305 304 304 303 302 301 300 300 300 299 299 298 297 296 296 296 298 300 301 300 300 300 300 300 300

ECMWFFLT1_925_thetae_024.txt.gz
Theta_e
327 326 326 325 325 325 324 324 323 324 325 325 326 326 326 326 326 327 326 326 327 326 326 326 328 328 328 329 329 329 328 327 327 328 328 328 329 329 329 330 330 328 328 328 328 327 327 325 321 319 319 318 319 319 319 319 318 319 321 322 322 322 321
325 324 323 324 324 324 324 323 322 323 325 325 326 326 325 325 324 325 325 325 326 326 325 326 326 327 328 329 329 328 329 328 327 327 328 328 328 328 328 328 329 329 328 327 325 324 326 325 322 320 318 318 318 317 317 317 316 316 317 319 319 319 318
324 323 323 323 323 323 322 322 322 322 324 325 325 325 325 326 325 325 326 326 326 326 325 326 327 328 329 330 330 330 330 329 328 328 326 327 328 327 328 328 328 329 328 327 324 323 325 324 320 319 318 318 318 317 316 316 315 315 315 316 316 316 316
325 323 322 323 323 323 322 322 323 323 324 324 325 325 325 325 326 326 326 325 326 325 325 325 327 329 330 331 331 331 331 330 330 329 328 328 327 326 327 326 326 327 326 326 324 323 324 322 320 320 317 316 317 316 316 314 313 314 314 314 315 315 314
325 323 322 323 323 323 322 322 322 322 324 324 324 325 324 325 326 326 325 325 325 325 325 325 326 327 328 330 331 331 330 329 329 330 329 328 327 325 325 325 324 324 323 323 322 322 323 320 320 319 316 314 315 314 313 312 311 311 312 313 313 313 314
325 324 322 322 322 322 322 322 321 321 322 324 324 324 323 324 325 325 325 325 325 325 325 325 325 325 327 328 329 329 329 329 329 328 327 327 326 324 323 322 322 320 320 320 320 321 321 318 317 317 315 314 314 313 312 310 309 308 308 310 311 312 313
327 325 323 322 322 321 321 321 321 321 323 324 324 323 323 324 324 325 324 324 324 325 324 324 324 325 326 326 327 326 326 327 326 325 324 323 321 319 317 316 315 315 315 316 316 318 318 317 317 316 315 315 314 313 311 310 308 308 308 308 310 311 312
328 327 324 322 322 321 320 321 322 323 324 324 323 323 323 324 323 324 324 323 324 324 324 323 323 324 324 324 323 323 323 323 322 321 320 318 316 314 313 313 312 312 313 314 314 316 316 317 317 315 314 317 319 316 313 311 309 308 309 308 309 310 310
328 327 324 322 322 321 321 321 322 323 323 323 322 322 322 323 322 322 322 323 323 323 323 323 322 323 322 321 320 319 319 319 319 318 317 315 314 314 314 313 313 313 313 314 314 315 316 316 316 315 313 316 320 319 316 315 312 309 309 308 308 309 309
328 325 322 322 322 321 321 322 323 323 322 321 321 320 321 320 319 319 320 321 322 322 322 321 321 320 319 318 318 317 317 316 316 316 315 315 314 314 314 315 315 315 314 314 314 315 316 315 315 316 315 315 318 320 320 318 315 311 310 309 308 308 308
327 324 322 322 322 322 323 323 323 322 321 320 320 320 321 319 318 317 318 319 320 320 319 318 317 317 316 317 316 315 315 314 314 315 315 316 316 317 317 317 317 316 315 315 314 314 315 315 315 316 317 316 317 319 319 318 318 314 310 310 309 308 308
327 324 323 323 323 324 324 323 322 322 320 319 318 319 319 317 316 315 316 316 317 317 316 315 315 315 314 314 314 314 314 314 314 315 317 317 317 318 317 317 317 316 316 316 316 316 315 316 316 315 317 317 317 318 316 316 318 315 311 311 310 309 309
328 324 322 322 321 321 322 322 322 321 320 318 316 316 316 316 314 313 313 314 315 315 314 314 313 313 313 312 312 313 313 314 314 316 318 318 317 317 317 316 317 316 316 317 316 317 317 316 316 316 317 316 316 317 316 315 316 314 312 311 310 309 309
328 323 321 319 318 318 318 321 321 320 318 317 316 315 314 314 313 312 312 313 313 313 313 313 313 312 312 312 312 313 313 314 314 315 316 317 316 316 316 316 316 316 315 315 315 316 315 315 316 315 315 315 315 316 316 315 315 314 313 312 310 309 309
325 321 320 319 317 317 316 318 320 319 318 317 316 315 314 313 313 312 312 312 312 313 313 313 313 312 312 312 312 313 313 315 315 315 315 316 316 315 315 315 315 315 315 315 315 315 314 314 315 315 315 315 315 315 315 315 315 315 313 312 311 310 309
324 321 320 320 319 317 316 317 316 316 318 317 315 315 315 314 314 312 312 312 312 312 313 313 313 313 313 313 314 313 314 314 315 315 315 316 315 314 314 314 315 315 315 315 315 314 314 315 315 315 315 315 315 315 315 315 315 316 314 313 312 311 310
325 323 322 321 321 320 319 318 316 315 317 317 315 315 315 315 314 313 313 313 311 311 313 313 314 314 314 315 315 315 314 314 315 315 315 315 315 315 315 315 315 316 316 316 316 315 314 315 316 316 315 315 315 315 315 315 315 316 315 314 314 312 311
325 325 324 322 322 323 323 322 320 317 317 317 316 315 316 315 315 315 315 314 313 312 313 314 314 314 314 315 316 315 315 315 314 314 314 314 315 315 316 316 316 316 317 318 317 317 316 316 316 316 315 316 315 315 316 315 315 315 315 315 315 314 313
324 325 325 323 322 324 324 323 322 319 317 316 316 316 315 314 314 315 316 316 315 314 314 314 315 314 314 315 315 316 316 316 316 316 315 315 316 316 317 318 318 318 318 318 318 318 318 317 317 317 317 317 316 315 315 315 316 315 315 315 315 315 314
324 324 324 323 322 324 324 323 322 321 318 317 316 317 317 315 314 315 315 315 316 315 315 314 315 316 316 316 316 317 317 317 318 318 317 317 317 318 318 319 319 319 319 319 319 318 318 317 317 317 317 317 317 316 315 315 315 315 315 315 315 315 314
325 324 324 324 323 324 324 323 323 321 321 319 317 318 317 316 315 315 314 314 315 315 315 314 315 316 317 318 318 318 318 319 319 319 319 319 319 319 319 319 320 320 319 319 319 319 318 318 318 318 318 318 317 316 316 315 315 314 314 315 315 315 314
326 325 325 324 324 324 325 324 323 322 321 320 320 319 318 317 316 315 315 315 314 314 315 315 315 316 316 317 318 319 319 320 320 320 320 321 321 320 320 320 320 320 319 318 318 318 318 318 318 318 318 319 318 317 316 316 315 314 314 315 314 315 314
326 326 326 325 325 325 325 324 323 322 322 321 321 321 320 319 318 316 316 316 314 314 314 315 315 315 315 317 318 320 321 321 321 321 321 322 322 321 321 319 318 318 317 316 316 317 318 317 317 317 317 318 318 317 317 316 315 315 315 315 315 315 314
326 326 326 326 325 325 325 325 324 323 322 322 322 322 322 321 319 319 318 316 316 315 315 315 315 316 316 317 319 321 322 323 323 322 322 321 321 321 319 317 316 316 315 315 315 316 317 317 317 316 316 316 316 316 317 316 316 315 315 315 315 314 314
325 325 325 325 324 325 325 324 324 323 323 323 323 323 322 321 320 320 319 318 318 316 316 316 315 316 316 317 320 321 322 323 322 321 321 320 319 319 317 315 315 315 314 315 315 315 317 317 315 314 314 316 317 316 316 315 315 315 314 314 313 313 313
323 323 324 323 323 323 323 323 323 323 324 324 324 324 324 323 322 321 320 320 320 319 319 319 317 316 316 317 320 321 321 322 321 320 320 317 317 318 317 316 315 315 314 315 315 315 317 318 316 314 314 315 316 317 316 315 313 312 311 312 311 311 312
320 321 322 322 322 322 321 321 322 323 323 324 325 324 324 323 323 322 321 321 321 321 320 320 320 318 317 318 319 320 320 320 319 319 317 315 315 317 317 316 316 315 315 315 315 316 317 317 317 317 315 315 316 317 316 314 313 311 310 309 308 309 310
317 318 320 321 322 321 321 321 322 322 322 323 324 324 324 323 322 322 322 321 321 321 320 319 320 320 319 318 319 320 319 318 318 318 317 316 316 316 316 317 317 316 315 315 316 317 317 317 317 316 314 313 313 313 313 312 311 310 309 308 307 308 309
312 314 315 317 319 320 321 322 322 322 323 323 324 323 323 323 323 322 322 321 321 321 320 319 319 320 321 320 318 318 316 315 317 318 318 318 318 316 317 318 317 316 316 317 317 317 317 317 316 313 312 310 309 309 310 309 308 308 308 308 307 308 307
310 311 311 313 314 315 317 319 320 321 322 323 323 323 323 323 323 322 322 321 320 320 320 320 319 319 321 320 318 316 315 314 315 316 318 319 319 318 318 317 316 316 316 317 316 315 316 317 314 312 311 310 309 309 308 307 307 307 307 306 305 304 303
307 308 310 311 311 312 313 314 315 317 318 320 321 321 321 322 322 322 321 321 320 320 320 320 320 319 320 320 318 316 315 315 315 314 316 318 317 316 316 315 314 314 313 312 312 312 314 316 314 312 312 311 309 308 307 306 305 304 303 303 302 302 303
305 307 308 309 310 311 311 312 312 313 314 316 318 318 319 320 321 321 321 321 321 320 320 320 319 319 319 319 319 317 317 317 316 315 317 317 315 314 314 312 313 314 311 308 309 311 313 314 313 313 312 311 309 308 307 306 304 303 303 304 304 304 304
304 305 306 307 308 309 310 310 311 311 311 313 314 316 317 318 319 320 321 321 320 320 320 320 319 319 319 319 319 319 318 317 316 317 316 315 313 312 310 309 311 312 309 307 308 310 311 312 312 312 312 311 310 309 308 307 306 305 305 304 304 304 304
303 304 304 304 304 305 306 307 309 311 312 312 312 314 314 315 317 318 319 320 320 319 320 319 319 319 319 319 319 319 318 317 316 316 315 313 312 310 309 309 309 308 306 306 307 309 309 310 311 311 310 310 309 308 308 307 306 305 304 303 302 303 303
303 303 303 303 303 304 304 305 306 308 310 310 311 312 312 314 315 316 318 319 319 318 318 319 319 320 319 319 319 319 318 316 315 314 312 309 308 306 306 306 305 304 304 305 306 306 307 309 310 310 309 308 307 306 306 305 304 303 303 302 302 302 302
302 302 302 303 303 303 303 304 305 306 306 308 310 310 311 312 314 315 317 318 317 318 318 318 319 320 319 319 319 318 317 316 315 312 309 306 305 303 302 303 304 303 304 305 304 305 305 306 308 308 306 305 305 304 303 302 301 301 301 301 301 301 301
301 301 302 302 302 302 302 303 304 304 305 306 308 309 310 311 313 314 316 317 317 317 317 317 317 319 319 319 318 317 316 313 312 310 308 306 305 303 301 302 303 303 303 304 304 304 304 304 305 305 304 303 302 301 301 301 301 301 301 301 300 300 300

ECMWFFLT1_925_thetae_027.txt.gz
Theta_e
326 325 325 326 326 324 323 326 326 325 326 327 327 327 327 326 326 327 327 327 328 328 328 327 328 328 329 329 330 329 328 329 327 326 328 328 328 328 329 330 329 328 326 326 325 323 323 322 319 318 319 319 320 319 320 322 323 323 324 323 323 321 319
325 325 325 324 323 323 322 325 326 325 325 326 325 325 324 324 325 326 327 326 326 326 327 327 327 328 328 329 329 328 327 327 327 327 328 328 328 328 328 329 328 328 327 325 323 321 321 322 320 319 317 317 318 317 317 320 323 323 323 322 321 319 315
325 324 324 324 323 323 323 323 324 324 325 325 324 325 325 324 324 325 326 325 326 326 326 328 328 327 328 328 328 328 327 326 326 328 328 328 328 328 328 329 328 327 326 324 323 322 320 319 319 318 316 316 317 316 315 317 321 321 320 318 318 316 314
324 324 323 323 322 321 322 322 322 323 325 325 324 325 325 325 325 325 324 324 325 326 326 328 329 329 328 329 328 328 327 327 327 327 327 327 328 328 328 328 328 326 325 324 323 324 320 317 318 318 316 316 316 316 315 315 317 317 316 315 314 314 313
323 322 322 322 321 321 322 323 323 324 324 324 324 324 324 323 325 325 324 324 325 325 326 327 329 330 329 329 329 328 329 329 328 327 328 327 326 327 327 327 327 326 324 323 323 324 319 315 317 317 316 316 316 316 315 314 314 314 313 313 313 313 313
322 321 322 322 321 322 323 324 323 324 324 324 324 323 323 324 325 325 324 324 325 324 325 326 328 330 330 329 329 329 330 330 329 327 327 326 325 325 326 325 326 325 324 323 322 322 319 316 316 315 314 315 313 313 313 313 313 314 313 313 313 312 313
322 322 323 322 321 322 322 322 323 323 324 324 322 322 323 324 324 324 324 324 324 323 324 325 326 328 329 329 329 329 329 329 328 327 326 324 324 324 324 324 323 321 320 320 320 322 320 317 315 314 313 313 311 310 310 309 310 311 312 313 312 312 312
322 322 323 322 322 322 321 321 321 323 324 323 322 323 324 324 324 324 323 323 324 324 324 324 325 326 328 328 328 328 327 326 325 323 320 318 318 318 318 318 317 316 315 316 317 320 321 318 315 313 313 314 313 311 308 307 308 309 310 311 310 310 310
322 322 322 321 321 321 321 321 322 323 323 322 323 324 324 324 323 323 323 323 323 323 324 324 323 324 324 325 325 324 323 322 319 316 314 313 313 313 314 314 314 314 314 316 316 317 319 317 314 313 312 313 314 314 311 308 307 308 309 310 309 309 308
322 322 321 320 320 321 321 323 323 323 323 323 323 323 322 322 322 322 323 323 323 322 323 322 322 321 321 321 322 321 320 319 316 314 313 313 313 313 314 313 313 314 314 315 315 315 316 316 315 315 313 312 312 313 314 313 310 308 308 309 309 309 307
323 322 321 320 321 322 322 323 323 323 322 321 321 320 320 320 321 322 322 321 321 321 320 320 320 318 318 318 319 318 317 317 315 313 314 314 314 314 314 313 313 314 314 315 315 315 315 316 316 316 315 314 312 311 313 316 315 310 308 308 308 308 307
322 321 321 321 321 322 323 322 322 322 321 320 320 319 318 318 318 320 321 320 319 319 318 318 317 317 316 316 315 315 314 314 315 315 316 316 316 315 314 313 313 314 314 315 315 315 315 315 315 316 316 315 313 310 310 314 316 312 309 308 308 307 307
321 322 321 320 321 323 323 322 321 321 319 319 319 319 317 316 316 318 319 317 316 316 315 316 316 316 315 314 314 314 314 314 316 317 317 317 316 316 315 315 315 315 316 316 316 316 315 316 316 316 316 315 313 312 310 312 314 312 310 309 308 308 308
322 321 321 320 321 323 322 322 321 320 318 317 318 317 316 315 315 316 316 316 315 314 314 314 314 314 313 313 313 314 314 316 317 317 316 316 316 316 316 316 316 316 316 316 316 316 316 315 316 315 316 315 314 313 313 313 312 311 311 310 308 309 308
322 322 321 321 321 322 321 321 320 318 317 315 315 315 314 313 313 314 314 314 314 313 312 312 312 312 312 313 313 314 315 316 317 316 316 316 316 316 315 315 315 315 315 315 315 315 315 314 315 315 315 316 315 314 315 314 312 311 311 310 309 309 309
323 322 320 319 319 321 321 320 318 317 316 315 315 314 314 312 312 312 313 313 313 313 312 312 312 311 311 313 313 313 315 316 317 316 316 315 315 315 315 315 315 314 315 314 314 314 315 315 315 315 315 315 315 315 315 314 313 312 311 310 310 309 310
322 320 318 316 317 319 320 319 317 316 316 315 314 314 314 312 312 311 312 312 313 313 312 313 312 312 312 313 313 314 314 315 316 315 315 314 314 314 314 314 314 314 315 315 315 315 315 315 315 315 315 315 315 315 314 315 315 314 313 312 310 310 310
320 319 318 316 316 316 316 315 313 313 314 313 313 314 315 314 313 312 311 311 312 312 313 314 313 312 314 315 314 314 315 315 315 315 315 314 314 314 313 313 313 314 316 316 316 316 316 316 316 316 315 315 315 315 314 315 315 315 314 313 312 311 311
321 319 319 318 317 317 316 314 313 313 314 314 314 315 316 315 314 313 312 311 312 312 313 314 313 313 315 315 314 314 315 314 314 315 315 314 314 314 315 315 315 316 317 317 317 318 317 317 317 316 316 316 315 315 315 315 315 315 314 314 313 312 312
323 322 321 321 322 322 320 319 318 317 316 316 316 316 315 314 314 315 314 312 312 313 314 314 314 313 315 315 314 314 314 314 314 314 314 314 315 316 316 317 317 317 318 318 318 318 317 317 317 317 317 316 316 315 315 315 314 314 314 314 314 314 313
324 324 323 322 324 324 323 322 321 320 318 316 315 316 315 314 314 315 315 314 313 313 314 314 314 313 314 315 315 315 314 315 316 316 315 315 316 317 317 317 318 318 318 318 318 318 318 317 317 317 317 317 317 316 316 315 315 314 314 314 314 314 314
324 324 323 322 323 324 323 322 321 321 320 318 316 316 316 315 315 314 314 314 314 315 314 315 315 315 316 316 316 316 316 316 318 317 316 317 317 317 318 318 318 318 318 318 318 318 318 318 317 317 317 318 318 318 317 316 315 315 314 314 314 314 314
323 323 324 323 323 324 324 323 322 321 322 320 318 317 316 316 316 314 314 314 314 315 315 314 315 316 317 316 317 318 317 317 318 318 317 318 318 318 318 319 319 319 318 318 319 318 318 318 317 317 317 317 318 318 317 316 316 315 315 314 315 315 314
323 322 323 323 324 325 324 324 324 323 323 322 320 318 317 317 317 316 315 314 314 315 315 314 315 315 315 316 317 318 318 318 319 319 319 319 319 319 318 319 319 319 319 318 318 318 317 317 317 317 317 317 316 316 317 316 317 316 315 315 314 314 313
323 322 320 321 324 325 325 324 324 323 323 323 323 322 321 320 320 319 318 316 315 316 315 314 314 315 315 316 316 317 318 318 318 319 320 320 320 320 319 320 320 319 319 317 317 316 315 315 316 317 316 316 315 315 316 316 316 316 315 315 314 313 312
321 322 321 321 322 323 323 324 324 324 323 323 323 324 323 322 321 321 321 319 318 317 317 316 315 315 315 315 315 316 318 318 319 320 321 320 320 321 321 321 320 318 317 316 315 315 314 314 316 316 315 314 313 313 314 316 315 315 314 314 313 312 311
317 319 321 321 321 322 322 322 322 322 323 323 323 324 324 324 323 323 322 322 321 320 319 318 316 315 315 315 315 316 318 319 320 321 322 321 321 321 321 320 319 316 315 315 315 314 314 315 316 315 314 313 313 313 315 316 315 314 311 311 311 311 310
309 312 314 315 316 317 318 320 321 321 321 321 322 323 323 324 323 323 323 322 322 321 320 320 318 317 316 315 316 318 319 320 321 322 322 322 320 319 319 318 317 316 315 315 314 314 314 315 315 315 314 315 315 315 315 315 314 313 311 309 309 309 309
306 307 308 310 311 312 313 315 317 318 319 320 321 322 323 324 323 323 323 322 322 322 321 321 320 319 318 317 317 319 321 321 321 322 322 321 320 318 317 316 316 315 315 315 314 314 315 316 316 316 316 316 315 313 313 313 312 311 311 310 309 308 308
304 305 306 307 308 309 310 310 311 312 313 315 317 320 322 322 322 322 322 323 322 322 322 321 321 320 319 318 318 319 320 320 321 320 320 320 319 318 317 316 315 316 316 315 315 315 315 316 316 316 316 315 313 311 310 309 309 309 309 309 308 307 306
303 304 305 305 306 307 307 308 309 310 310 310 312 314 316 319 319 320 321 321 321 322 322 322 321 321 320 320 319 319 319 319 319 318 318 319 318 318 318 317 317 318 318 317 316 315 316 317 317 316 314 312 310 309 308 307 308 308 307 307 306 304 303
302 303 303 303 303 304 304 305 306 307 307 307 308 310 311 314 315 317 318 319 320 321 321 321 321 321 320 320 319 319 319 318 317 316 316 316 316 316 317 318 318 318 318 317 316 315 315 316 316 314 312 311 309 309 308 307 307 306 305 304 303 303 303
301 301 301 301 302 302 302 303 303 303 304 304 305 308 310 311 312 313 315 317 318 320 320 320 320 321 320 320 320 319 319 319 317 316 315 314 314 315 316 317 317 317 316 316 316 315 314 314 314 313 311 311 310 309 307 306 305 304 304 303 303 302 302
300 301 301 300 301 301 302 302 302 302 303 303 304 305 306 307 309 309 310 311 314 317 319 319 319 320 320 320 320 319 319 319 318 317 316 315 315 315 316 316 315 314 314 314 313 312 311 312 313 313 312 311 311 309 307 305 304 304 304 302 302 302 302
301 301 301 301 301 301 301 301 301 301 302 302 303 303 304 304 305 306 307 308 309 312 315 316 317 318 319 319 319 320 319 319 318 318 317 316 315 315 315 314 313 312 312 310 308 308 309 310 311 312 311 311 310 309 307 306 305 304 303 301 301 302 302
300 301 301 301 301 301 301 301 301 301 301 301 301 302 302 303 304 305 306 306 306 308 311 315 317 318 318 318 318 318 319 319 318 318 318 317 315 314 313 312 310 310 309 308 306 306 307 309 310 310 309 309 308 307 307 306 304 303 302 301 301 301 300
300 300 300 300 300 300 300 300 300 300 300 300 301 301 301 302 302 302 303 304 304 305 307 312 315 317 317 317 316 316 317 318 318 317 317 317 315 313 312 310 308 307 306 304 304 305 306 308 308 308 308 307 307 306 306 304 303 301 301 301 300 300 299

ECMWFFLT1_925_thetae_030.txt.gz
Theta_e
329 329 329 329 329 328 328 328 327 325 324 326 326 326 327 328 328 328 330 330 330 330 329 329 329 329 330 329 329 328 328 328 327 327 328 328 329 328 328 329 328 326 325 323 320 320 321 320 319 321 323 323 324 324 324 325 324 324 323 322 317 311 305
329 329 329 328 328 327 326 326 327 326 326 325 324 324 325 326 326 327 327 327 328 329 329 329 328 329 330 329 329 328 328 328 327 326 327 328 328 328 328 329 328 326 324 321 319 318 318 319 319 318 317 319 322 324 324 323 322 322 322 318 312 307 304
328 329 328 327 326 326 326 326 326 326 327 326 325 324 324 325 326 326 326 325 326 327 328 328 328 329 329 328 329 329 328 328 327 326 327 328 328 328 328 328 327 324 322 320 319 318 317 317 319 317 315 315 317 321 323 322 322 321 319 315 311 308 306
327 328 326 324 324 325 326 325 325 326 326 326 326 324 324 325 325 325 325 325 325 325 327 327 328 328 328 328 328 328 327 327 327 326 327 328 327 327 328 328 326 324 322 320 319 318 317 315 317 317 314 314 316 320 323 322 320 319 316 313 312 309 305
326 326 324 322 322 324 326 325 324 325 325 325 325 325 325 325 325 324 325 325 325 325 326 327 328 327 327 328 328 327 327 326 327 327 327 327 327 327 328 327 327 325 323 321 319 319 317 316 316 316 314 315 316 318 320 320 316 315 314 313 312 309 305
325 324 323 322 323 324 325 324 324 324 324 325 325 324 324 325 324 324 324 325 325 326 326 327 328 328 328 328 327 327 327 326 326 326 326 327 327 327 328 327 327 326 324 322 321 320 317 315 315 314 314 315 315 314 317 317 314 313 313 312 312 310 307
325 323 323 322 323 323 322 322 323 324 324 324 323 323 323 325 324 324 324 324 325 325 326 328 328 329 328 328 327 328 328 327 326 326 326 326 326 326 328 328 327 326 324 323 322 319 314 313 314 314 314 314 313 312 312 313 313 313 312 312 312 310 307
324 323 322 322 321 322 321 322 323 324 323 323 322 322 323 325 324 324 324 323 324 325 325 327 328 329 328 328 328 329 329 328 327 327 326 325 325 326 326 326 326 325 324 323 322 317 311 311 313 314 314 313 312 309 307 309 312 312 312 312 311 309 307
322 320 320 320 321 322 322 323 323 323 323 322 322 323 324 324 323 323 323 323 323 324 324 326 328 329 329 328 329 329 329 328 326 325 323 322 323 323 321 320 319 320 321 322 323 319 312 311 313 314 314 313 311 309 307 308 308 310 312 312 311 309 306
320 320 320 320 322 323 323 322 322 323 323 322 322 324 324 323 323 322 323 323 324 324 324 326 328 329 329 329 329 328 328 326 322 319 317 317 317 317 316 315 315 316 316 317 320 321 315 312 314 314 314 312 309 308 310 310 308 308 310 310 310 308 306
320 321 321 321 322 322 322 322 322 323 323 322 323 324 323 323 323 322 322 323 323 323 324 325 326 327 327 326 325 323 321 318 315 314 314 314 314 314 314 314 315 316 316 316 319 321 318 314 313 313 312 311 309 308 308 311 310 309 309 309 309 308 307
321 322 322 321 321 321 321 322 323 323 322 323 323 323 323 322 322 322 322 322 323 322 322 322 323 324 323 322 320 317 315 314 313 313 314 313 313 313 314 314 315 315 316 316 318 320 319 315 313 312 311 309 309 308 307 309 311 310 308 308 308 308 307
322 322 321 321 321 321 321 322 323 322 322 323 322 322 322 321 322 322 321 321 321 321 321 319 319 320 320 319 318 316 314 313 314 314 314 313 313 313 313 314 316 315 315 316 316 317 317 315 314 313 311 309 309 308 307 308 310 309 308 308 307 307 308
321 321 320 320 321 322 322 322 322 322 322 321 320 320 320 321 321 321 320 319 319 319 319 318 317 317 318 317 316 316 315 314 315 315 314 314 313 313 313 314 315 316 315 316 316 316 315 315 316 315 313 311 309 308 308 309 309 309 309 308 307 308 308
321 320 320 321 322 322 322 322 322 321 320 319 318 318 318 318 320 320 318 317 317 317 318 317 316 316 315 314 313 314 316 316 316 316 315 315 315 314 314 315 316 315 315 315 315 315 315 315 315 315 314 312 310 309 309 310 309 309 310 308 308 308 308
321 321 321 321 322 322 322 321 321 320 319 319 318 317 316 315 318 319 317 315 314 315 315 315 315 315 314 313 312 314 317 317 316 315 315 315 316 316 315 315 315 315 315 315 314 314 314 315 315 315 314 312 310 310 311 312 311 310 310 309 308 308 308
321 321 321 321 322 322 321 320 319 318 318 318 317 315 314 314 315 316 315 314 313 313 313 313 313 313 313 312 312 314 316 316 316 315 315 315 315 315 315 315 314 314 314 314 314 314 314 314 314 315 314 313 313 313 314 314 313 312 311 310 309 308 308
321 321 321 322 321 321 321 320 318 316 316 316 315 314 313 312 312 313 313 313 312 312 311 311 311 312 312 312 312 314 316 316 316 315 315 316 315 314 314 314 314 314 314 314 315 315 315 314 314 315 315 314 314 315 314 314 314 313 312 311 310 309 309
321 321 321 320 320 321 320 319 317 315 314 315 314 313 312 312 311 312 312 312 312 312 311 311 311 311 312 312 313 315 316 316 316 316 315 315 314 314 314 314 314 314 314 314 314 315 315 315 315 314 314 314 314 315 315 315 314 314 313 312 311 311 310
320 319 319 318 319 320 320 318 317 315 314 314 314 314 313 313 312 312 312 312 312 312 312 312 312 311 313 313 313 314 315 316 316 315 314 314 314 314 314 313 313 314 315 314 315 315 315 315 315 315 315 315 315 315 315 315 315 314 314 313 312 312 312
319 318 317 316 316 317 316 315 315 315 314 313 314 314 314 314 313 312 311 311 312 312 313 313 312 312 314 314 314 314 315 315 315 314 314 314 313 313 313 312 312 313 315 315 315 316 316 316 316 316 315 315 315 315 314 314 314 314 314 314 313 313 313
319 319 319 319 319 319 318 316 316 316 316 315 315 315 315 314 314 313 311 311 312 312 313 313 313 313 314 315 314 314 315 315 315 314 314 314 314 313 314 314 314 314 315 316 316 317 317 316 316 316 316 315 315 315 314 314 315 314 314 314 314 314 314
321 321 321 322 323 323 321 321 321 320 320 318 316 316 315 314 314 314 313 312 312 312 313 314 313 312 314 315 314 314 314 314 314 314 314 314 314 314 315 316 316 316 317 317 317 317 317 317 317 316 316 316 316 316 315 315 315 315 314 314 314 314 314
322 322 322 323 324 323 323 322 322 322 322 320 317 316 315 315 314 314 314 314 313 312 313 314 314 313 313 314 314 314 314 313 314 315 314 314 314 315 316 317 317 317 317 318 317 318 318 318 317 317 317 317 317 317 317 317 316 315 315 315 314 314 314
323 323 323 322 323 323 323 323 323 323 323 322 320 317 315 316 316 315 315 314 314 313 313 314 314 314 314 314 314 315 314 314 315 317 316 315 315 316 317 317 318 318 318 318 318 318 318 318 318 317 317 317 317 317 317 317 317 316 316 316 315 314 314
321 321 322 322 322 322 322 322 322 321 321 321 322 320 319 319 319 318 317 316 315 315 314 314 314 314 314 315 315 315 315 315 316 317 317 317 317 317 317 318 318 318 319 318 318 318 318 318 317 317 316 316 317 317 316 316 316 316 316 316 315 315 314
313 314 316 317 318 319 319 320 321 320 319 320 321 321 322 322 322 322 321 320 319 318 317 317 316 314 314 315 316 316 316 316 316 316 317 317 317 318 318 318 318 318 319 319 318 318 317 316 315 315 315 315 316 316 315 314 314 314 315 315 315 315 315
306 307 308 309 310 311 312 314 316 316 316 318 319 320 321 322 322 321 321 322 322 322 321 320 319 317 316 315 316 316 316 316 317 317 317 316 317 318 318 318 319 319 319 319 318 317 316 315 314 314 314 315 315 315 314 313 312 313 314 314 314 314 313
303 304 304 305 305 306 306 307 307 308 309 311 314 316 319 321 321 321 321 321 321 321 321 321 321 321 320 318 317 316 316 316 317 317 317 317 317 318 319 319 320 320 320 320 319 317 315 314 314 314 315 316 315 314 314 313 313 313 312 311 310 311 311
302 302 302 303 303 303 303 303 303 304 304 305 306 308 310 313 316 320 322 323 322 321 321 320 321 321 321 321 320 318 316 316 317 317 318 318 318 319 319 320 320 320 320 320 319 316 315 315 314 314 315 316 315 313 312 312 312 312 310 308 308 309 308
301 301 301 301 301 301 301 302 302 302 302 303 303 303 304 306 308 311 315 318 320 321 320 320 320 320 321 321 321 320 318 316 317 319 320 320 320 320 320 320 320 320 319 319 317 316 315 315 314 315 316 316 314 312 311 310 310 310 308 307 306 306 305
300 300 300 301 300 300 300 300 300 301 301 301 302 302 302 303 304 304 306 307 310 312 313 314 316 318 320 321 321 320 319 318 318 319 320 320 321 320 320 319 318 318 318 317 316 315 315 315 315 315 316 315 313 311 310 309 309 308 306 305 304 304 303
300 300 300 300 300 300 300 300 300 300 300 300 301 301 301 302 302 302 303 303 304 304 305 307 308 311 314 317 320 320 320 319 318 318 318 319 320 320 319 318 317 318 318 317 317 317 317 317 316 315 315 315 312 310 309 308 307 306 304 303 303 302 302
300 300 300 300 300 300 300 300 300 300 300 300 300 300 300 300 301 301 302 302 302 302 303 304 305 305 307 310 315 318 320 319 319 319 318 318 318 318 318 317 317 318 317 316 317 317 318 317 316 316 316 315 312 309 308 307 305 304 303 302 302 302 302
299 299 299 299 299 299 299 299 299 299 300 300 300 300 300 300 300 300 301 301 301 301 302 303 304 304 305 306 309 313 317 319 319 319 318 317 317 317 317 316 316 316 316 315 315 316 316 316 316 315 314 313 312 310 308 307 305 303 302 302 302 301 301
299 298 298 298 299 299 299 299 299 299 299 299 299 299 299 299 299 299 300 300 301 301 301 301 302 303 304 306 306 308 312 315 318 319 318 318 318 318 318 317 317 316 315 315 314 314 315 315 315 314 313 313 312 310 307 305 304 303 302 301 301 300 299
298 298 298 298 298 298 298 298 298 298 298 298 298 298 298 298 298 298 298 298 299 300 300 300 301 301 303 305 307 307 308 311 315 317 318 318 318 318 318 317 317 316 316 315 314 313 313 313 313 313 313 312 311 308 306 304 303 302 301 300 300 299 298

ECMWFFLT1_925_thetae_033.txt.gz
Theta_e
332 332 332 331 330 329 328 328 329 331 331 331 330 330 330 330 330 330 331 331 331 330 330 330 330 329 328 328 329 328 328 328 327 328 328 328 328 328 328 328 327 325 324 322 321 322 324 322 320 322 324 325 325 325 325 326 325 322 316 309 305 304 304
331 330 331 330 329 328 326 325 326 328 330 329 329 328 328 328 328 328 329 329 330 330 329 330 329 329 328 328 328 328 328 327 327 328 328 328 328 328 328 328 326 324 323 320 320 320 321 322 320 318 321 325 324 325 326 324 323 319 312 308 306 304 303
330 330 329 329 328 328 326 325 325 326 326 326 326 326 326 326 326 325 326 326 328 328 329 329 328 329 329 329 328 328 327 327 327 327 327 328 328 328 328 327 325 323 321 318 318 320 319 319 319 316 319 323 323 324 324 323 321 315 309 308 306 303 303
329 329 329 329 329 328 327 326 326 325 325 324 324 324 325 325 325 324 324 324 325 326 327 327 327 328 329 329 329 328 328 327 327 327 326 327 328 328 328 327 325 323 322 319 318 320 318 316 317 315 316 321 322 322 322 322 320 312 308 308 304 302 303
328 328 328 329 327 327 327 326 326 326 326 325 324 323 324 325 324 324 324 324 324 325 326 327 326 327 328 329 329 329 328 327 327 326 325 327 328 328 327 327 326 324 323 321 319 320 319 318 316 314 315 320 320 318 319 321 316 310 309 308 304 303 302
328 328 327 327 326 326 326 325 326 326 326 325 324 324 324 325 324 324 324 324 324 324 325 326 326 326 327 327 328 328 327 326 326 326 326 327 327 327 327 327 326 324 322 321 319 319 319 318 315 313 315 319 318 314 315 315 311 309 311 309 306 304 302
327 327 325 324 325 326 325 325 325 325 325 325 324 324 324 324 324 323 324 324 324 324 325 325 326 326 326 327 327 327 326 326 326 327 327 327 327 327 327 327 326 323 321 320 319 319 318 317 316 314 314 315 315 313 312 312 310 310 311 311 308 306 305
327 326 324 322 323 324 324 324 324 324 324 324 324 324 324 324 323 323 324 324 324 325 325 326 327 327 327 327 327 327 326 326 326 326 326 327 327 327 327 327 327 324 322 320 319 319 319 318 316 316 315 314 313 310 309 310 312 311 311 311 309 307 306
326 325 323 322 322 323 324 324 323 323 324 324 323 322 323 324 323 323 324 323 323 324 325 327 328 328 328 328 327 327 327 327 326 326 326 326 326 326 327 327 327 326 324 321 320 319 319 318 316 315 315 314 312 309 307 309 309 310 312 311 309 308 306
325 324 323 322 322 323 322 322 322 323 323 323 322 322 324 324 323 323 323 323 323 324 324 326 328 328 328 328 328 328 327 326 326 325 324 325 325 326 326 327 326 326 324 322 321 319 317 316 315 313 312 312 312 310 310 312 310 309 311 311 308 308 306
324 324 323 322 322 322 321 321 322 323 323 322 322 323 324 323 323 322 323 323 323 323 324 326 328 328 328 328 328 328 327 326 324 322 322 322 322 321 322 322 323 325 324 323 322 318 314 313 314 312 311 310 310 310 311 313 312 310 310 310 308 307 308
324 323 321 320 321 321 321 322 323 323 322 321 322 323 323 323 322 322 323 323 323 323 324 326 328 328 328 328 328 328 327 324 319 317 318 318 317 316 316 316 317 320 322 322 323 319 312 311 312 311 311 311 310 310 310 311 311 310 309 309 308 307 308
322 320 319 319 319 321 322 322 322 322 322 322 322 323 323 323 322 322 322 323 322 322 323 325 327 327 327 327 326 326 324 318 313 313 315 315 314 314 315 315 315 316 318 319 322 322 315 311 312 312 312 312 310 310 309 308 309 309 308 308 308 308 308
320 319 319 320 320 321 322 321 321 322 322 322 322 323 323 322 322 321 321 322 322 322 321 322 323 324 324 322 320 319 317 314 312 313 314 314 315 315 315 315 315 315 316 316 319 322 319 313 312 312 313 313 311 309 308 307 307 308 308 308 308 308 307
319 320 321 321 321 321 321 321 321 322 322 322 322 322 321 321 321 321 321 321 322 321 321 320 320 320 321 318 315 314 313 313 313 313 313 313 314 315 315 315 315 315 316 316 317 321 320 315 313 313 313 313 312 309 307 307 308 308 308 308 308 307 307
321 321 322 321 321 321 320 321 321 322 322 322 321 320 320 320 321 321 320 319 320 320 320 319 317 317 318 318 316 315 314 313 313 313 313 313 313 314 315 315 315 315 316 317 317 319 320 318 315 314 313 313 311 309 307 307 308 308 308 308 307 307 307
321 321 321 321 321 321 321 321 322 322 322 321 319 318 318 319 320 320 319 318 318 318 318 318 317 316 316 316 315 314 315 315 314 314 313 313 312 313 315 315 315 315 315 316 316 316 316 316 315 315 314 314 312 310 308 307 308 309 309 308 308 308 308
321 321 320 321 321 321 322 322 322 322 320 319 318 318 317 316 317 318 318 316 315 315 315 316 315 315 315 314 313 313 315 316 315 315 314 314 314 314 314 315 315 314 314 314 315 315 315 315 315 314 314 314 313 311 308 308 309 310 310 309 309 309 308
321 320 320 320 321 322 322 321 321 320 318 318 318 317 315 313 313 315 316 315 314 313 313 313 313 313 313 313 312 312 315 317 316 315 315 315 315 315 314 314 314 314 314 314 314 314 314 314 314 314 313 312 311 310 309 310 311 311 311 311 310 309 308
321 321 321 321 321 321 321 321 320 318 316 317 318 316 314 313 311 311 312 314 314 313 312 311 311 311 312 312 312 312 313 316 316 315 315 315 315 314 314 314 314 314 314 314 314 314 314 314 314 314 314 312 312 311 312 313 313 312 311 312 311 310 308
321 321 321 321 321 320 320 320 319 317 315 315 316 315 313 312 311 311 311 312 313 312 312 311 311 311 311 311 312 312 313 315 316 315 315 315 315 314 314 314 314 314 314 314 314 314 314 314 314 314 314 314 314 314 314 314 314 313 313 312 312 311 310
321 322 321 321 319 317 319 320 318 316 315 314 315 315 314 313 312 312 312 311 312 312 311 311 312 312 311 311 312 312 313 315 316 316 316 315 315 315 314 314 314 313 314 314 314 314 314 315 315 314 314 314 314 314 314 315 314 314 314 313 312 312 311
321 321 320 319 315 312 314 318 318 316 315 314 314 313 314 314 314 314 313 312 312 311 311 312 312 312 311 311 312 313 313 314 315 315 316 315 314 314 314 313 313 312 313 314 315 315 315 315 315 315 315 315 314 314 314 314 314 314 314 313 313 313 312
320 319 319 318 316 314 315 318 318 317 317 316 315 314 314 315 315 314 314 313 311 311 311 312 312 312 312 312 313 314 313 313 314 315 315 315 314 314 314 313 313 313 313 314 315 316 316 316 316 316 316 315 315 315 315 314 314 314 314 313 313 313 313
320 320 319 319 318 318 319 320 320 320 321 321 320 318 316 316 315 314 314 313 313 312 311 312 312 312 313 312 312 314 314 314 314 314 314 314 314 314 314 314 313 314 315 316 316 317 317 317 317 317 316 316 316 316 316 316 315 315 315 314 314 313 313
319 319 320 320 319 320 321 321 321 321 321 321 321 320 318 317 316 315 315 314 314 313 312 311 312 312 313 313 312 313 314 314 314 314 314 314 314 313 314 314 313 314 315 316 317 317 317 318 317 317 317 317 317 317 317 317 316 316 316 316 315 315 314
312 313 315 316 317 317 318 319 319 319 319 320 321 321 321 320 320 319 319 318 317 316 315 314 313 313 313 313 313 313 313 314 314 314 314 313 313 313 314 314 314 314 315 316 317 317 317 317 318 318 318 317 317 317 317 316 316 316 316 316 316 316 316
304 305 306 308 309 309 310 311 311 312 313 316 317 318 319 320 320 321 321 321 321 320 320 319 318 317 317 316 315 314 313 313 314 314 314 314 313 313 314 315 315 314 315 316 317 317 317 318 318 318 317 317 317 316 315 315 315 315 315 315 315 315 315
302 302 302 303 303 303 304 304 304 305 306 308 310 312 314 315 316 319 320 321 321 321 321 321 321 321 320 320 320 318 316 314 313 314 314 314 314 314 315 316 316 316 316 316 317 317 317 318 318 318 317 317 315 315 314 314 314 314 314 313 312 312 313
301 300 301 301 301 301 301 301 301 302 303 303 304 305 306 307 309 312 316 318 318 320 321 321 320 319 319 319 320 320 320 319 317 315 315 315 315 315 316 316 316 316 316 317 317 317 318 318 318 317 316 315 314 314 314 314 314 314 313 312 311 311 311
300 300 300 300 300 300 300 300 300 300 300 301 301 301 302 302 303 305 308 309 310 312 314 315 314 313 313 313 315 317 319 319 319 319 318 318 317 316 316 316 317 317 317 317 317 318 318 318 317 316 315 314 314 314 314 314 314 313 312 311 310 309 309
299 299 299 299 300 299 299 300 299 300 300 300 300 300 300 301 301 301 302 303 303 304 306 306 307 307 307 307 309 311 314 316 317 319 319 319 318 317 317 317 317 317 318 318 318 319 319 318 315 314 314 313 313 313 313 313 313 311 311 310 308 308 307
299 299 299 299 299 299 299 299 299 299 300 299 299 299 299 300 300 300 300 301 301 302 302 303 303 304 304 304 305 306 308 310 313 315 317 318 319 318 318 318 318 318 318 319 319 319 319 317 314 313 313 313 313 313 313 312 311 310 310 309 307 306 305
298 298 298 299 299 299 299 299 299 299 299 299 299 299 299 299 299 299 299 300 300 300 301 301 301 302 302 302 303 304 305 307 308 310 312 315 316 317 318 318 318 318 319 319 319 319 318 317 316 314 314 314 314 313 313 313 311 309 308 308 306 304 303
298 298 298 298 298 298 298 298 298 298 298 299 299 299 299 298 299 299 299 299 299 299 299 300 300 301 301 301 301 302 303 306 308 309 310 311 312 314 316 317 318 318 318 318 319 319 318 317 317 315 314 314 315 314 313 312 310 308 307 305 304 303 302
297 297 297 297 297 297 297 297 298 298 298 298 298 298 298 298 298 298 298 298 298 298 298 298 299 299 300 300 301 301 302 304 306 308 310 311 311 311 312 314 316 317 317 317 317 318 318 318 317 316 315 315 315 314 312 310 308 306 305 303 303 303 303
297 296 296 296 296 296 296 296 296 296 296 296 297 297 297 297 297 297 297 297 298 298 298 298 298 298 299 299 300 300 301 303 304 305 307 309 311 311 311 312 314 315 316 316 316 316 316 316 316 315 314 314 314 313 311 309 307 304 303 303 303 303 302

ECMWFFLT1_925_thetae_036.txt.gz
Theta_e
332 331 331 330 331 331 332 332 332 332 332 332 332 331 331 331 331 331 331 331 331 330 331 331 331 331 329 328 328 327 327 327 328 328 328 328 327 327 327 327 326 325 324 322 321 322 322 322 322 323 324 323 323 323 322 322 317 309 304 304 304 304 304
331 330 330 330 331 331 331 331 332 332 332 331 331 331 330 330 330 330 331 330 330 330 330 330 330 331 329 328 328 327 327 327 327 328 328 328 328 327 327 327 325 323 322 321 321 322 321 321 322 322 322 322 322 322 322 320 313 306 305 304 303 304 303
331 330 330 331 330 330 330 331 331 331 330 330 329 329 329 329 329 329 329 329 329 329 329 329 330 329 328 328 328 328 327 327 327 327 328 328 328 327 327 326 324 322 320 319 320 321 320 320 321 321 322 322 322 321 321 318 311 306 305 304 303 303 303
331 330 331 331 330 329 328 329 329 329 328 327 327 327 327 326 326 326 327 327 328 328 329 329 328 328 328 328 328 328 328 327 327 327 327 327 328 327 327 327 325 323 322 320 320 321 320 319 320 321 321 321 321 320 320 318 310 306 305 303 303 303 302
330 329 330 330 329 327 325 326 327 326 326 326 325 326 325 325 324 324 324 325 326 327 328 328 327 327 328 328 328 328 328 327 327 327 327 327 327 328 327 327 326 324 323 321 321 322 321 321 321 320 319 320 319 318 320 318 311 307 305 303 303 302 301
328 328 329 329 328 326 324 324 324 324 324 324 324 324 324 324 324 323 323 323 324 325 326 327 326 327 328 328 328 328 328 327 327 327 327 327 326 327 328 327 326 324 322 321 321 321 322 322 321 319 318 319 317 316 320 318 311 308 307 303 302 301 299
327 328 328 327 327 326 325 324 325 324 323 323 322 323 323 324 324 323 322 323 323 324 325 326 326 326 327 327 328 328 327 326 326 326 326 326 326 326 328 327 326 324 323 321 320 321 322 321 321 320 317 316 315 314 317 315 310 308 309 305 302 302 300
327 327 327 326 326 325 325 325 325 324 323 323 323 323 323 324 323 323 323 323 323 324 325 326 325 326 326 326 327 327 327 326 326 326 326 326 326 326 327 327 326 325 322 320 320 320 321 321 321 321 319 316 314 312 310 311 310 309 310 307 304 305 302
327 327 327 325 325 325 324 324 324 324 324 324 324 323 324 324 323 322 323 323 323 324 325 325 326 326 326 326 327 327 326 326 326 326 326 326 326 327 327 327 327 325 322 320 319 319 320 321 320 320 319 318 317 313 309 311 311 309 311 310 307 307 305
327 327 326 325 324 324 324 324 324 324 324 323 323 323 323 323 323 323 323 322 323 323 323 325 327 327 327 327 327 326 326 326 326 326 326 326 326 326 326 326 327 326 323 320 319 319 319 320 319 319 318 315 315 314 312 315 314 310 311 311 308 306 306
327 326 325 323 323 324 324 323 323 323 323 322 322 322 323 323 323 323 322 322 322 322 322 324 327 328 327 327 327 327 327 326 326 325 325 325 325 325 326 326 327 327 325 322 319 318 318 319 318 318 317 313 310 311 312 315 317 312 310 311 308 306 306
327 326 323 322 323 324 323 322 323 323 322 322 321 322 323 323 323 322 322 322 322 322 323 324 327 328 327 327 328 327 327 326 325 325 324 324 325 325 325 326 327 326 326 324 321 318 318 318 318 317 316 313 310 309 310 313 315 313 310 309 308 307 306
325 324 323 322 322 322 321 321 322 322 322 322 321 322 323 323 323 322 322 323 321 322 324 325 327 328 328 328 328 328 327 326 323 321 322 322 322 322 323 324 325 326 326 324 322 321 319 318 318 317 315 313 310 309 309 310 312 311 309 309 308 307 307
324 323 322 322 321 321 321 321 322 322 322 322 321 322 323 323 322 322 322 322 321 321 322 324 326 327 327 327 327 327 327 322 317 317 319 318 316 316 317 318 320 323 325 325 323 322 320 316 315 316 314 312 310 309 309 309 309 309 309 308 308 308 308
323 323 322 320 320 321 321 322 322 322 321 322 322 322 322 322 322 322 321 322 322 321 321 321 323 324 324 323 322 322 321 316 313 314 316 315 314 314 315 315 315 317 321 324 323 322 319 314 313 314 313 312 311 310 310 309 308 308 308 308 308 307 308
323 322 319 319 319 320 321 321 321 321 321 322 322 322 322 321 321 321 320 321 322 321 320 319 319 320 320 319 316 315 314 313 312 314 314 314 314 315 314 314 315 315 316 319 321 323 320 314 312 313 312 311 311 311 310 309 308 308 308 308 308 308 307
322 320 319 319 320 320 321 320 320 321 322 322 322 321 320 320 321 320 320 320 320 320 319 319 318 317 318 318 317 315 314 313 313 313 313 313 314 314 314 314 314 315 315 316 318 320 320 315 312 312 311 311 311 311 312 310 308 307 308 308 308 308 307
321 319 319 321 321 321 321 320 320 321 322 322 321 319 318 319 319 320 319 319 319 318 318 318 317 316 316 316 317 316 315 314 314 313 313 312 312 313 314 314 314 314 315 315 316 317 319 319 316 314 313 312 312 312 312 311 308 307 308 309 309 308 307
320 320 321 321 321 321 320 320 321 322 322 321 319 318 317 317 316 317 318 317 316 316 316 316 316 315 315 315 314 314 314 314 314 314 313 313 313 312 313 315 315 314 315 315 316 316 318 319 319 317 315 314 314 313 312 310 308 307 307 309 309 308 308
321 321 321 321 321 320 320 321 322 321 321 319 318 318 316 314 313 314 315 315 315 314 313 313 313 312 313 313 313 313 312 314 316 315 314 314 314 313 314 314 314 314 315 315 315 315 315 316 316 316 315 315 314 314 312 310 308 307 307 309 310 309 309
321 321 321 320 320 321 321 321 321 320 319 318 318 318 315 313 312 311 312 313 313 313 312 312 311 311 311 311 312 312 312 313 315 316 315 314 314 314 314 314 314 314 314 314 314 314 314 314 314 314 314 314 313 312 312 310 308 308 309 310 311 310 309
322 321 320 320 320 320 320 320 320 318 317 316 317 317 315 313 312 311 311 311 312 312 312 312 311 311 311 311 311 311 311 312 313 314 315 315 315 315 314 314 314 314 314 314 314 314 313 313 314 314 314 314 312 311 310 309 309 310 311 311 311 310 310
321 320 320 320 320 319 319 319 319 318 316 316 316 315 315 314 313 312 312 312 312 312 311 311 311 311 311 312 311 311 312 312 312 313 315 315 315 315 315 314 314 313 313 313 314 314 314 314 314 314 314 314 313 312 311 311 312 312 313 312 311 311 310
320 320 320 320 318 316 315 317 317 318 317 316 315 315 314 314 314 313 314 314 313 312 311 311 311 311 312 312 312 311 311 312 313 313 314 315 315 315 315 315 314 313 313 313 313 314 315 315 315 314 314 314 314 314 313 313 314 314 314 313 313 312 311
319 319 319 318 317 316 315 316 317 318 318 317 317 316 315 314 314 314 315 314 314 313 312 311 311 311 312 312 312 312 312 312 313 313 313 314 315 315 315 315 314 314 313 313 313 313 314 315 316 316 316 315 315 315 314 314 314 314 314 314 313 313 313
316 317 317 317 318 318 317 317 318 319 319 319 319 318 317 317 316 316 316 315 314 313 313 312 311 311 311 311 312 312 312 312 313 313 314 314 314 314 314 314 314 314 314 314 313 313 314 315 316 316 316 316 316 316 315 315 315 314 314 314 314 314 314
310 310 311 312 314 314 314 314 315 316 318 319 319 319 319 319 319 319 318 318 317 317 317 316 315 314 314 313 313 313 313 313 312 313 313 313 314 314 314 314 314 313 313 313 313 313 314 315 316 316 317 317 317 316 316 316 316 316 316 316 316 316 316
305 304 305 305 306 306 306 307 307 309 311 313 314 314 315 316 318 319 319 319 320 319 319 319 319 319 318 318 317 316 316 315 315 314 313 313 313 313 313 314 314 313 313 313 313 314 314 314 315 316 316 317 317 317 317 317 317 316 316 316 316 316 316
302 302 302 303 302 301 301 301 301 302 304 305 307 308 309 310 312 313 315 316 318 317 316 317 318 319 320 320 320 320 319 319 318 317 316 315 315 314 313 313 313 314 314 314 315 315 315 314 314 315 316 316 317 317 317 316 316 316 316 316 315 314 314
301 301 301 301 301 300 300 300 300 300 301 301 302 303 303 304 305 306 308 310 311 311 311 312 313 315 316 317 318 318 319 320 320 320 319 319 318 317 316 316 315 315 315 315 315 315 315 315 315 316 316 316 316 316 316 316 315 315 314 314 313 313 313
300 300 300 300 300 300 300 300 300 300 300 300 300 300 300 301 301 302 303 303 304 304 305 305 307 308 310 311 312 313 314 315 317 318 319 320 320 319 319 319 318 318 317 317 316 316 316 316 316 316 316 316 316 316 315 315 314 313 313 313 313 313 312
299 299 299 300 300 300 299 299 299 299 299 299 299 299 299 299 300 300 300 300 301 301 301 301 302 303 304 305 306 307 307 308 310 311 313 315 317 318 319 319 319 319 319 318 318 317 316 316 317 316 316 316 315 315 315 315 314 313 313 314 313 312 311
298 299 299 299 300 300 299 299 299 299 300 300 299 299 299 299 299 299 299 299 299 299 300 300 300 300 301 301 302 302 303 303 304 306 307 308 310 312 314 315 317 318 319 319 319 318 317 317 317 316 316 316 315 315 316 316 315 314 313 312 312 311 310
297 298 298 298 299 299 298 298 298 299 299 300 300 300 300 300 299 299 299 299 299 299 299 299 299 299 299 300 300 300 301 301 301 303 304 305 306 307 308 309 311 312 314 315 317 318 317 317 316 316 316 316 316 315 316 315 314 313 311 311 310 309 308
297 297 297 297 297 297 297 297 298 298 298 298 298 299 299 299 299 299 299 298 298 298 298 298 298 298 298 299 299 299 299 299 300 301 302 302 304 304 305 306 307 308 309 310 312 315 317 316 316 315 315 315 315 314 314 313 313 312 311 310 309 307 306
296 296 296 296 296 296 296 296 297 297 297 297 297 297 297 297 298 298 298 298 298 298 298 298 298 298 298 298 298 298 298 298 299 299 300 301 302 303 303 304 305 306 307 307 308 311 314 315 315 314 314 314 314 314 313 313 313 312 311 309 307 306 305
295 295 295 295 295 295 295 295 295 295 296 296 296 296 296 296 296 297 297 297 297 297 297 298 298 298 298 298 298 298 298 298 298 298 299 300 301 302 303 303 304 304 305 306 307 308 311 313 314 314 314 313 314 314 313 313 313 312 309 307 306 305 304